Wetterdaten: Dienstag, 23.04.2013
Datum Zeit Temp. Aussen +5cm Feuchte Auss Luftdruck Regen Sonnenschein Regendauer UV Solar Windben
23.04.2013 00:00 10,1 C 7,9 C 64 % 1017,1 hPa 0,0 l/m 0 min 0 min 0,0 UV-I 0 W/m 0,0 km/h (0 Bft)
23.04.2013 00:02 10,1 C 7,9 C 64 % 1017,2 hPa 0,0 l/m 0 min 0 min 0,0 UV-I 0 W/m 0,0 km/h (0 Bft)
23.04.2013 00:06 10,1 C 7,9 C 65 % 1017,2 hPa 0,0 l/m 0 min 0 min 0,0 UV-I 0 W/m 2,6 km/h (1 Bft)
23.04.2013 00:08 10,0 C 7,9 C 65 % 1017,2 hPa 0,0 l/m 0 min 0 min 0,0 UV-I 0 W/m 0,0 km/h (0 Bft)
23.04.2013 00:10 10,0 C 7,9 C 65 % 1017,2 hPa 0,0 l/m 0 min 0 min 0,0 UV-I 0 W/m 0,0 km/h (0 Bft)
23.04.2013 00:12 10,0 C 7,9 C 65 % 1017,2 hPa 0,0 l/m 0 min 0 min 0,0 UV-I 0 W/m 0,0 km/h (0 Bft)
23.04.2013 00:14 10,0 C 7,9 C 66 % 1017,2 hPa 0,0 l/m 0 min 0 min 0,0 UV-I 0 W/m 0,0 km/h (0 Bft)
23.04.2013 00:16 10,0 C 7,9 C 66 % 1017,2 hPa 0,0 l/m 0 min 0 min 0,0 UV-I 0 W/m 0,0 km/h (0 Bft)
23.04.2013 00:18 9,9 C 8,4 C 67 % 1017,2 hPa 0,0 l/m 0 min 0 min 0,0 UV-I 0 W/m 0,0 km/h (0 Bft)
23.04.2013 00:20 9,9 C 7,9 C 67 % 1017,2 hPa 0,0 l/m 0 min 0 min 0,0 UV-I 0 W/m 0,0 km/h (0 Bft)
23.04.2013 00:22 9,9 C 7,9 C 67 % 1017,2 hPa 0,0 l/m 0 min 0 min 0,0 UV-I 0 W/m 0,0 km/h (0 Bft)
23.04.2013 00:24 9,9 C 7,9 C 67 % 1017,1 hPa 0,0 l/m 0 min 0 min 0,0 UV-I 0 W/m 0,0 km/h (0 Bft)
23.04.2013 00:26 9,9 C 7,9 C 67 % 1017,2 hPa 0,0 l/m 0 min 0 min 0,0 UV-I 0 W/m 0,0 km/h (0 Bft)
23.04.2013 00:28 9,9 C 8,4 C 68 % 1017,1 hPa 0,0 l/m 0 min 0 min 0,0 UV-I 0 W/m 2,6 km/h (1 Bft)
23.04.2013 00:30 9,9 C 8,4 C 68 % 1017,1 hPa 0,0 l/m 0 min 0 min 0,0 UV-I 0 W/m 0,0 km/h (0 Bft)
23.04.2013 00:32 9,9 C 8,4 C 69 % 1017,2 hPa 0,0 l/m 0 min 0 min 0,0 UV-I 0 W/m 2,6 km/h (1 Bft)
23.04.2013 00:34 9,9 C 8,4 C 69 % 1017,2 hPa 0,0 l/m 0 min 0 min 0,0 UV-I 0 W/m 0,0 km/h (0 Bft)
23.04.2013 00:36 9,9 C 8,4 C 69 % 1017,2 hPa 0,0 l/m 0 min 0 min 0,0 UV-I 0 W/m 10,3 km/h (2 Bft)
23.04.2013 00:38 9,9 C 9,0 C 69 % 1017,2 hPa 0,0 l/m 0 min 0 min 0,0 UV-I 0 W/m 0,0 km/h (0 Bft)
23.04.2013 00:40 9,9 C 9,0 C 69 % 1017,2 hPa 0,0 l/m 0 min 0 min 0,0 UV-I 0 W/m 2,6 km/h (1 Bft)
23.04.2013 00:42 9,9 C 9,0 C 70 % 1017,1 hPa 0,0 l/m 0 min 0 min 0,0 UV-I 0 W/m 0,0 km/h (0 Bft)
23.04.2013 00:44 9,9 C 9,0 C 70 % 1017,2 hPa 0,0 l/m 0 min 0 min 0,0 UV-I 0 W/m 2,6 km/h (1 Bft)
23.04.2013 00:46 9,9 C 9,0 C 70 % 1017,1 hPa 0,0 l/m 0 min 0 min 0,0 UV-I 0 W/m 5,1 km/h (1 Bft)
23.04.2013 00:48 9,9 C 9,0 C 70 % 1017,1 hPa 0,0 l/m 0 min 0 min 0,0 UV-I 0 W/m 0,0 km/h (0 Bft)
23.04.2013 00:50 9,9 C 9,0 C 70 % 1017,1 hPa 0,0 l/m 0 min 0 min 0,0 UV-I 0 W/m 2,6 km/h (1 Bft)
23.04.2013 00:52 10,0 C 9,0 C 70 % 1017,1 hPa 0,0 l/m 0 min 0 min 0,0 UV-I 0 W/m 0,0 km/h (0 Bft)
23.04.2013 00:54 10,0 C 9,0 C 70 % 1017,1 hPa 0,0 l/m 0 min 0 min 0,0 UV-I 0 W/m 12,9 km/h (3 Bft)
23.04.2013 00:56 10,0 C 9,0 C 70 % 1017,1 hPa 0,0 l/m 0 min 0 min 0,0 UV-I 0 W/m 0,0 km/h (0 Bft)
23.04.2013 00:58 10,1 C 9,0 C 70 % 1017,1 hPa 0,0 l/m 0 min 0 min 0,0 UV-I 0 W/m 0,0 km/h (0 Bft)
23.04.2013 01:00 10,1 C 9,0 C 71 % 1017,1 hPa 0,0 l/m 0 min 0 min 0,0 UV-I 0 W/m 7,7 km/h (2 Bft)
23.04.2013 01:02 10,1 C 9,0 C 71 % 1017,1 hPa 0,0 l/m 0 min 0 min 0,0 UV-I 0 W/m 0,0 km/h (0 Bft)
23.04.2013 01:04 10,1 C 9,0 C 71 % 1017,1 hPa 0,0 l/m 0 min 0 min 0,0 UV-I 0 W/m 2,6 km/h (1 Bft)
23.04.2013 01:06 10,2 C 9,0 C 71 % 1017,2 hPa 0,0 l/m 0 min 0 min 0,0 UV-I 0 W/m 0,0 km/h (0 Bft)
23.04.2013 01:08 10,2 C 9,0 C 71 % 1017,2 hPa 0,0 l/m 0 min 0 min 0,0 UV-I 0 W/m 0,0 km/h (0 Bft)
23.04.2013 01:10 10,2 C 9,0 C 71 % 1017,2 hPa 0,0 l/m 0 min 0 min 0,0 UV-I 0 W/m 2,6 km/h (1 Bft)
23.04.2013 01:12 10,2 C 9,0 C 71 % 1017,2 hPa 0,0 l/m 0 min 0 min 0,0 UV-I 0 W/m 5,1 km/h (1 Bft)
23.04.2013 01:14 10,2 C 9,0 C 71 % 1017,2 hPa 0,0 l/m 0 min 0 min 0,0 UV-I 0 W/m 7,7 km/h (2 Bft)
23.04.2013 01:16 10,2 C 9,0 C 71 % 1017,2 hPa 0,0 l/m 0 min 0 min 0,0 UV-I 0 W/m 7,7 km/h (2 Bft)
23.04.2013 01:18 10,3 C 9,0 C 71 % 1017,2 hPa 0,0 l/m 0 min 0 min 0,0 UV-I 0 W/m 2,6 km/h (1 Bft)
23.04.2013 01:20 10,3 C 9,0 C 71 % 1017,2 hPa 0,0 l/m 0 min 0 min 0,0 UV-I 0 W/m 2,6 km/h (1 Bft)
23.04.2013 01:22 10,3 C 9,0 C 71 % 1017,2 hPa 0,0 l/m 0 min 0 min 0,0 UV-I 0 W/m 2,6 km/h (1 Bft)
23.04.2013 01:24 10,3 C 9,0 C 71 % 1017,3 hPa 0,0 l/m 0 min 0 min 0,0 UV-I 0 W/m 10,3 km/h (2 Bft)
23.04.2013 01:26 10,3 C 9,0 C 71 % 1017,3 hPa 0,0 l/m 0 min 0 min 0,0 UV-I 0 W/m 0,0 km/h (0 Bft)
23.04.2013 01:28 10,3 C 9,0 C 71 % 1017,2 hPa 0,0 l/m 0 min 0 min 0,0 UV-I 0 W/m 5,1 km/h (1 Bft)
23.04.2013 01:30 10,3 C 9,0 C 71 % 1017,2 hPa 0,0 l/m 0 min 0 min 0,0 UV-I 0 W/m 7,7 km/h (2 Bft)
23.04.2013 01:32 10,3 C 9,0 C 71 % 1017,1 hPa 0,0 l/m 0 min 0 min 0,0 UV-I 0 W/m 0,0 km/h (0 Bft)
23.04.2013 01:34 10,4 C 9,0 C 71 % 1017,2 hPa 0,0 l/m 0 min 0 min 0,0 UV-I 0 W/m 5,1 km/h (1 Bft)
23.04.2013 01:36 10,4 C 9,0 C 71 % 1017,2 hPa 0,0 l/m 0 min 0 min 0,0 UV-I 0 W/m 5,1 km/h (1 Bft)
23.04.2013 01:38 10,4 C 9,0 C 72 % 1017,2 hPa 0,0 l/m 0 min 0 min 0,0 UV-I 0 W/m 0,0 km/h (0 Bft)
23.04.2013 01:40 10,4 C 9,0 C 72 % 1017,1 hPa 0,0 l/m 0 min 0 min 0,0 UV-I 0 W/m 2,6 km/h (1 Bft)
23.04.2013 01:42 10,4 C 9,0 C 72 % 1017,2 hPa 0,0 l/m 0 min 0 min 0,0 UV-I 0 W/m 0,0 km/h (0 Bft)
23.04.2013 01:44 10,4 C 9,0 C 72 % 1017,2 hPa 0,0 l/m 0 min 0 min 0,0 UV-I 0 W/m 0,0 km/h (0 Bft)
23.04.2013 01:46 10,4 C 9,0 C 72 % 1017,3 hPa 0,0 l/m 0 min 0 min 0,0 UV-I 0 W/m 5,1 km/h (1 Bft)
23.04.2013 01:48 10,4 C 9,0 C 72 % 1017,3 hPa 0,0 l/m 0 min 0 min 0,0 UV-I 0 W/m 5,1 km/h (1 Bft)
23.04.2013 01:50 10,4 C 9,0 C 72 % 1017,3 hPa 0,0 l/m 0 min 0 min 0,0 UV-I 0 W/m 2,6 km/h (1 Bft)
23.04.2013 01:52 10,4 C 9,0 C 72 % 1017,3 hPa 0,0 l/m 0 min 0 min 0,0 UV-I 0 W/m 10,3 km/h (2 Bft)
23.04.2013 01:54 10,4 C 9,0 C 72 % 1017,3 hPa 0,0 l/m 0 min 0 min 0,0 UV-I 0 W/m 5,1 km/h (1 Bft)
23.04.2013 01:56 10,4 C 9,0 C 72 % 1017,3 hPa 0,0 l/m 0 min 0 min 0,0 UV-I 0 W/m 2,6 km/h (1 Bft)
23.04.2013 01:58 10,4 C 9,0 C 72 % 1017,3 hPa 0,0 l/m 0 min 0 min 0,0 UV-I 0 W/m 0,0 km/h (0 Bft)
23.04.2013 02:00 10,4 C 9,0 C 72 % 1017,3 hPa 0,0 l/m 0 min 0 min 0,0 UV-I 0 W/m 5,1 km/h (1 Bft)
23.04.2013 02:02 10,3 C 9,0 C 72 % 1017,3 hPa 0,0 l/m 0 min 0 min 0,0 UV-I 0 W/m 2,6 km/h (1 Bft)
23.04.2013 02:04 10,3 C 9,0 C 72 % 1017,3 hPa 0,0 l/m 0 min 0 min 0,0 UV-I 0 W/m 10,3 km/h (2 Bft)
23.04.2013 02:06 10,3 C 9,0 C 72 % 1017,3 hPa 0,0 l/m 0 min 0 min 0,0 UV-I 0 W/m 7,7 km/h (2 Bft)
23.04.2013 02:08 10,3 C 9,0 C 72 % 1017,3 hPa 0,0 l/m 0 min 0 min 0,0 UV-I 0 W/m 0,0 km/h (0 Bft)
23.04.2013 02:10 10,3 C 9,0 C 72 % 1017,3 hPa 0,0 l/m 0 min 0 min 0,0 UV-I 0 W/m 0,0 km/h (0 Bft)
23.04.2013 02:12 10,3 C 9,0 C 72 % 1017,2 hPa 0,0 l/m 0 min 0 min 0,0 UV-I 0 W/m 2,6 km/h (1 Bft)
23.04.2013 02:14 10,3 C 9,0 C 72 % 1017,2 hPa 0,0 l/m 0 min 0 min 0,0 UV-I 0 W/m 0,0 km/h (0 Bft)
23.04.2013 02:16 10,3 C 9,0 C 71 % 1017,1 hPa 0,0 l/m 0 min 0 min 0,0 UV-I 0 W/m 15,4 km/h (3 Bft)
23.04.2013 02:18 10,3 C 9,0 C 71 % 1017,2 hPa 0,0 l/m 0 min 0 min 0,0 UV-I 0 W/m 2,6 km/h (1 Bft)
23.04.2013 02:20 10,3 C 9,0 C 71 % 1017,1 hPa 0,0 l/m 0 min 0 min 0,0 UV-I 0 W/m 0,0 km/h (0 Bft)
23.04.2013 02:22 10,3 C 9,0 C 71 % 1017,1 hPa 0,0 l/m 0 min 0 min 0,0 UV-I 0 W/m 7,7 km/h (2 Bft)
23.04.2013 02:24 10,3 C 9,0 C 72 % 1017,2 hPa 0,0 l/m 0 min 0 min 0,0 UV-I 0 W/m 0,0 km/h (0 Bft)
23.04.2013 02:26 10,3 C 9,0 C 72 % 1017,0 hPa 0,0 l/m 0 min 0 min 0,0 UV-I 0 W/m 0,0 km/h (0 Bft)
23.04.2013 02:28 10,3 C 9,0 C 72 % 1017,0 hPa 0,0 l/m 0 min 0 min 0,0 UV-I 0 W/m 0,0 km/h (0 Bft)
23.04.2013 02:30 10,3 C 9,0 C 72 % 1017,0 hPa 0,0 l/m 0 min 0 min 0,0 UV-I 0 W/m 0,0 km/h (0 Bft)
23.04.2013 02:32 10,3 C 9,0 C 72 % 1017,0 hPa 0,0 l/m 0 min 0 min 0,0 UV-I 0 W/m 0,0 km/h (0 Bft)
23.04.2013 02:34 10,3 C 9,0 C 72 % 1017,0 hPa 0,0 l/m 0 min 0 min 0,0 UV-I 0 W/m 5,1 km/h (1 Bft)
23.04.2013 02:36 10,3 C 9,0 C 72 % 1017,0 hPa 0,0 l/m 0 min 0 min 0,0 UV-I 0 W/m 2,6 km/h (1 Bft)
23.04.2013 02:38 10,3 C 9,0 C 72 % 1016,9 hPa 0,0 l/m 0 min 0 min 0,0 UV-I 0 W/m 5,1 km/h (1 Bft)
23.04.2013 02:40 10,3 C 9,0 C 72 % 1016,9 hPa 0,0 l/m 0 min 0 min 0,0 UV-I 0 W/m 2,6 km/h (1 Bft)
23.04.2013 02:42 10,3 C 9,0 C 72 % 1016,8 hPa 0,0 l/m 0 min 0 min 0,0 UV-I 0 W/m 0,0 km/h (0 Bft)
23.04.2013 02:44 10,3 C 9,0 C 72 % 1016,9 hPa 0,0 l/m 0 min 0 min 0,0 UV-I 0 W/m 5,1 km/h (1 Bft)
23.04.2013 02:46 10,3 C 9,0 C 72 % 1016,8 hPa 0,0 l/m 0 min 0 min 0,0 UV-I 0 W/m 5,1 km/h (1 Bft)
23.04.2013 02:48 10,3 C 9,0 C 72 % 1016,9 hPa 0,0 l/m 0 min 0 min 0,0 UV-I 0 W/m 10,3 km/h (2 Bft)
23.04.2013 02:50 10,3 C 9,0 C 72 % 1017,0 hPa 0,0 l/m 0 min 0 min 0,0 UV-I 0 W/m 7,7 km/h (2 Bft)
23.04.2013 02:52 10,3 C 9,0 C 72 % 1017,0 hPa 0,0 l/m 0 min 0 min 0,0 UV-I 0 W/m 5,1 km/h (1 Bft)
23.04.2013 02:54 10,3 C 9,0 C 72 % 1016,9 hPa 0,0 l/m 0 min 0 min 0,0 UV-I 0 W/m 0,0 km/h (0 Bft)
23.04.2013 02:56 10,2 C 9,0 C 72 % 1016,9 hPa 0,0 l/m 0 min 0 min 0,0 UV-I 0 W/m 2,6 km/h (1 Bft)
23.04.2013 02:58 10,2 C 9,0 C 72 % 1016,9 hPa 0,0 l/m 0 min 0 min 0,0 UV-I 0 W/m 2,6 km/h (1 Bft)
23.04.2013 03:00 10,2 C 9,0 C 72 % 1016,9 hPa 0,0 l/m 0 min 0 min 0,0 UV-I 0 W/m 0,0 km/h (0 Bft)
23.04.2013 03:02 10,2 C 9,0 C 72 % 1016,9 hPa 0,0 l/m 0 min 0 min 0,0 UV-I 0 W/m 2,6 km/h (1 Bft)
23.04.2013 03:04 10,2 C 9,0 C 72 % 1017,0 hPa 0,0 l/m 0 min 0 min 0,0 UV-I 0 W/m 7,7 km/h (2 Bft)
23.04.2013 03:06 10,2 C 9,0 C 72 % 1016,9 hPa 0,0 l/m 0 min 0 min 0,0 UV-I 0 W/m 5,1 km/h (1 Bft)
23.04.2013 03:08 10,2 C 9,0 C 72 % 1016,9 hPa 0,0 l/m 0 min 0 min 0,0 UV-I 0 W/m 0,0 km/h (0 Bft)
23.04.2013 03:10 10,2 C 9,0 C 72 % 1016,8 hPa 0,0 l/m 0 min 0 min 0,0 UV-I 0 W/m 2,6 km/h (1 Bft)
23.04.2013 03:12 10,2 C 9,0 C 72 % 1016,9 hPa 0,0 l/m 0 min 0 min 0,0 UV-I 0 W/m 2,6 km/h (1 Bft)
23.04.2013 03:14 10,2 C 9,0 C 72 % 1016,9 hPa 0,0 l/m 0 min 0 min 0,0 UV-I 0 W/m 12,9 km/h (3 Bft)
23.04.2013 03:16 10,2 C 9,0 C 72 % 1016,9 hPa 0,0 l/m 0 min 0 min 0,0 UV-I 0 W/m 5,1 km/h (1 Bft)
23.04.2013 03:18 10,2 C 9,0 C 72 % 1016,9 hPa 0,0 l/m 0 min 0 min 0,0 UV-I 0 W/m 2,6 km/h (1 Bft)
23.04.2013 03:20 10,2 C 9,0 C 72 % 1016,9 hPa 0,0 l/m 0 min 0 min 0,0 UV-I 0 W/m 7,7 km/h (2 Bft)
23.04.2013 03:22 10,2 C 9,0 C 72 % 1016,8 hPa 0,0 l/m 0 min 0 min 0,0 UV-I 0 W/m 12,9 km/h (3 Bft)
23.04.2013 03:24 10,2 C 9,0 C 72 % 1016,9 hPa 0,0 l/m 0 min 0 min 0,0 UV-I 0 W/m 7,7 km/h (2 Bft)
23.04.2013 03:26 10,2 C 9,0 C 72 % 1016,9 hPa 0,0 l/m 0 min 0 min 0,0 UV-I 0 W/m 12,9 km/h (3 Bft)
23.04.2013 03:28 10,2 C 9,0 C 72 % 1016,8 hPa 0,0 l/m 0 min 0 min 0,0 UV-I 0 W/m 10,3 km/h (2 Bft)
23.04.2013 03:30 10,2 C 9,0 C 72 % 1016,9 hPa 0,0 l/m 0 min 0 min 0,0 UV-I 0 W/m 2,6 km/h (1 Bft)
23.04.2013 03:32 10,2 C 9,0 C 72 % 1016,8 hPa 0,0 l/m 0 min 0 min 0,0 UV-I 0 W/m 7,7 km/h (2 Bft)
23.04.2013 03:34 10,2 C 9,0 C 72 % 1016,9 hPa 0,0 l/m 0 min 0 min 0,0 UV-I 0 W/m 2,6 km/h (1 Bft)
23.04.2013 03:36 10,2 C 9,0 C 72 % 1016,9 hPa 0,0 l/m 0 min 0 min 0,0 UV-I 0 W/m 0,0 km/h (0 Bft)
23.04.2013 03:38 10,2 C 9,0 C 72 % 1016,9 hPa 0,0 l/m 0 min 0 min 0,0 UV-I 0 W/m 10,3 km/h (2 Bft)
23.04.2013 03:40 10,2 C 9,0 C 73 % 1016,9 hPa 0,0 l/m 0 min 0 min 0,0 UV-I 0 W/m 5,1 km/h (1 Bft)
23.04.2013 03:42 10,1 C 9,0 C 72 % 1016,9 hPa 0,0 l/m 0 min 0 min 0,0 UV-I 0 W/m 2,6 km/h (1 Bft)
23.04.2013 03:44 10,1 C 9,0 C 73 % 1017,0 hPa 0,0 l/m 0 min 0 min 0,0 UV-I 0 W/m 5,1 km/h (1 Bft)
23.04.2013 03:46 10,1 C 9,0 C 73 % 1016,9 hPa 0,0 l/m 0 min 0 min 0,0 UV-I 0 W/m 5,1 km/h (1 Bft)
23.04.2013 03:48 10,1 C 9,0 C 73 % 1017,0 hPa 0,0 l/m 0 min 0 min 0,0 UV-I 0 W/m 2,6 km/h (1 Bft)
23.04.2013 03:50 10,1 C 9,0 C 73 % 1016,9 hPa 0,0 l/m 0 min 0 min 0,0 UV-I 0 W/m 2,6 km/h (1 Bft)
23.04.2013 03:52 10,1 C 9,0 C 73 % 1017,0 hPa 0,0 l/m 0 min 0 min 0,0 UV-I 0 W/m 0,0 km/h (0 Bft)
23.04.2013 03:54 10,1 C 9,0 C 73 % 1017,0 hPa 0,0 l/m 0 min 0 min 0,0 UV-I 0 W/m 0,0 km/h (0 Bft)
23.04.2013 03:56 10,1 C 9,0 C 73 % 1017,0 hPa 0,0 l/m 0 min 0 min 0,0 UV-I 0 W/m 5,1 km/h (1 Bft)
23.04.2013 03:58 10,1 C 8,4 C 73 % 1017,0 hPa 0,0 l/m 0 min 0 min 0,0 UV-I 0 W/m 0,0 km/h (0 Bft)
23.04.2013 04:00 10,1 C 8,4 C 73 % 1017,0 hPa 0,0 l/m 0 min 0 min 0,0 UV-I 0 W/m 2,6 km/h (1 Bft)
23.04.2013 04:02 10,0 C 8,4 C 73 % 1017,0 hPa 0,0 l/m 0 min 0 min 0,0 UV-I 0 W/m 10,3 km/h (2 Bft)
23.04.2013 04:04 10,0 C 8,4 C 73 % 1017,0 hPa 0,0 l/m 0 min 0 min 0,0 UV-I 0 W/m 2,6 km/h (1 Bft)
23.04.2013 04:06 10,0 C 8,4 C 73 % 1017,0 hPa 0,0 l/m 0 min 0 min 0,0 UV-I 0 W/m 2,6 km/h (1 Bft)
23.04.2013 04:08 10,0 C 8,4 C 73 % 1017,0 hPa 0,0 l/m 0 min 0 min 0,0 UV-I 0 W/m 7,7 km/h (2 Bft)
23.04.2013 04:10 9,9 C 8,4 C 73 % 1017,0 hPa 0,0 l/m 0 min 0 min 0,0 UV-I 0 W/m 5,1 km/h (1 Bft)
23.04.2013 04:12 9,9 C 8,4 C 73 % 1017,1 hPa 0,0 l/m 0 min 0 min 0,0 UV-I 0 W/m 2,6 km/h (1 Bft)
23.04.2013 04:14 9,9 C 8,4 C 73 % 1017,1 hPa 0,0 l/m 0 min 0 min 0,0 UV-I 0 W/m 5,1 km/h (1 Bft)
23.04.2013 04:16 9,9 C 8,4 C 73 % 1017,1 hPa 0,0 l/m 0 min 0 min 0,0 UV-I 0 W/m 2,6 km/h (1 Bft)
23.04.2013 04:18 9,9 C 8,4 C 73 % 1017,1 hPa 0,0 l/m 0 min 0 min 0,0 UV-I 0 W/m 2,6 km/h (1 Bft)
23.04.2013 04:20 9,9 C 8,4 C 73 % 1017,2 hPa 0,0 l/m 0 min 0 min 0,0 UV-I 0 W/m 5,1 km/h (1 Bft)
23.04.2013 04:22 9,9 C 8,4 C 73 % 1017,2 hPa 0,0 l/m 0 min 0 min 0,0 UV-I 0 W/m 5,1 km/h (1 Bft)
23.04.2013 04:24 9,9 C 8,4 C 73 % 1017,1 hPa 0,0 l/m 0 min 0 min 0,0 UV-I 0 W/m 18,0 km/h (3 Bft)
23.04.2013 04:26 9,9 C 8,4 C 73 % 1017,1 hPa 0,0 l/m 0 min 0 min 0,0 UV-I 0 W/m 10,3 km/h (2 Bft)
23.04.2013 04:28 9,9 C 8,4 C 73 % 1017,1 hPa 0,0 l/m 0 min 0 min 0,0 UV-I 0 W/m 5,1 km/h (1 Bft)
23.04.2013 04:30 9,9 C 8,4 C 73 % 1017,2 hPa 0,0 l/m 0 min 0 min 0,0 UV-I 0 W/m 5,1 km/h (1 Bft)
23.04.2013 04:32 9,9 C 8,4 C 73 % 1017,2 hPa 0,0 l/m 0 min 0 min 0,0 UV-I 0 W/m 2,6 km/h (1 Bft)
23.04.2013 04:34 9,8 C 8,4 C 73 % 1017,3 hPa 0,0 l/m 0 min 0 min 0,0 UV-I 0 W/m 5,1 km/h (1 Bft)
23.04.2013 04:36 9,8 C 8,4 C 73 % 1017,3 hPa 0,0 l/m 0 min 0 min 0,0 UV-I 0 W/m 5,1 km/h (1 Bft)
23.04.2013 04:38 9,8 C 8,4 C 74 % 1017,3 hPa 0,0 l/m 0 min 0 min 0,0 UV-I 0 W/m 0,0 km/h (0 Bft)
23.04.2013 04:40 9,8 C 8,4 C 73 % 1017,3 hPa 0,0 l/m 0 min 0 min 0,0 UV-I 0 W/m 0,0 km/h (0 Bft)
23.04.2013 04:42 9,8 C 8,4 C 73 % 1017,2 hPa 0,0 l/m 0 min 0 min 0,0 UV-I 0 W/m 10,3 km/h (2 Bft)
23.04.2013 04:44 9,8 C 8,4 C 73 % 1017,3 hPa 0,0 l/m 0 min 0 min 0,0 UV-I 0 W/m 0,0 km/h (0 Bft)
23.04.2013 04:46 9,8 C 8,4 C 74 % 1017,3 hPa 0,0 l/m 0 min 0 min 0,0 UV-I 0 W/m 0,0 km/h (0 Bft)
23.04.2013 04:48 9,8 C 8,4 C 74 % 1017,3 hPa 0,0 l/m 0 min 0 min 0,0 UV-I 0 W/m 0,0 km/h (0 Bft)
23.04.2013 04:50 9,8 C 8,4 C 74 % 1017,3 hPa 0,0 l/m 0 min 0 min 0,0 UV-I 0 W/m 5,1 km/h (1 Bft)
23.04.2013 04:52 9,8 C 8,4 C 74 % 1017,2 hPa 0,0 l/m 0 min 0 min 0,0 UV-I 0 W/m 5,1 km/h (1 Bft)
23.04.2013 04:54 9,8 C 8,4 C 74 % 1017,3 hPa 0,0 l/m 0 min 0 min 0,0 UV-I 0 W/m 7,7 km/h (2 Bft)
23.04.2013 04:56 9,8 C 8,4 C 74 % 1017,3 hPa 0,0 l/m 0 min 0 min 0,0 UV-I 0 W/m 5,1 km/h (1 Bft)
23.04.2013 04:58 9,8 C 8,4 C 74 % 1017,3 hPa 0,0 l/m 0 min 0 min 0,0 UV-I 0 W/m 2,6 km/h (1 Bft)
23.04.2013 05:00 9,8 C 8,4 C 74 % 1017,3 hPa 0,0 l/m 0 min 0 min 0,0 UV-I 0 W/m 0,0 km/h (0 Bft)
23.04.2013 05:02 9,8 C 8,4 C 74 % 1017,3 hPa 0,0 l/m 0 min 0 min 0,0 UV-I 0 W/m 5,1 km/h (1 Bft)
23.04.2013 05:04 9,8 C 8,4 C 74 % 1017,2 hPa 0,0 l/m 0 min 0 min 0,0 UV-I 0 W/m 0,0 km/h (0 Bft)
23.04.2013 05:06 9,8 C 8,4 C 74 % 1017,3 hPa 0,0 l/m 0 min 0 min 0,0 UV-I 0 W/m 5,1 km/h (1 Bft)
23.04.2013 05:08 9,8 C 8,4 C 74 % 1017,2 hPa 0,0 l/m 0 min 0 min 0,0 UV-I 0 W/m 2,6 km/h (1 Bft)
23.04.2013 05:10 9,8 C 8,4 C 74 % 1017,2 hPa 0,0 l/m 0 min 0 min 0,0 UV-I 0 W/m 2,6 km/h (1 Bft)
23.04.2013 05:12 9,8 C 8,4 C 74 % 1017,2 hPa 0,0 l/m 0 min 0 min 0,0 UV-I 0 W/m 0,0 km/h (0 Bft)
23.04.2013 05:14 9,8 C 8,4 C 74 % 1017,2 hPa 0,0 l/m 0 min 0 min 0,0 UV-I 0 W/m 0,0 km/h (0 Bft)
23.04.2013 05:16 9,8 C 8,4 C 74 % 1017,2 hPa 0,0 l/m 0 min 0 min 0,0 UV-I 0 W/m 7,7 km/h (2 Bft)
23.04.2013 05:18 9,8 C 8,4 C 74 % 1017,3 hPa 0,0 l/m 0 min 0 min 0,0 UV-I 0 W/m 5,1 km/h (1 Bft)
23.04.2013 05:20 9,8 C 8,4 C 74 % 1017,2 hPa 0,0 l/m 0 min 0 min 0,0 UV-I 0 W/m 7,7 km/h (2 Bft)
23.04.2013 05:22 9,8 C 8,4 C 74 % 1017,2 hPa 0,0 l/m 0 min 0 min 0,0 UV-I 0 W/m 12,9 km/h (3 Bft)
23.04.2013 05:24 9,8 C 9,0 C 74 % 1017,3 hPa 0,0 l/m 0 min 0 min 0,0 UV-I 0 W/m 12,9 km/h (3 Bft)
23.04.2013 05:26 9,8 C 9,0 C 74 % 1017,2 hPa 0,0 l/m 0 min 0 min 0,0 UV-I 0 W/m 12,9 km/h (3 Bft)
23.04.2013 05:28 9,8 C 9,0 C 74 % 1017,2 hPa 0,0 l/m 0 min 0 min 0,0 UV-I 0 W/m 5,1 km/h (1 Bft)
23.04.2013 05:30 9,8 C 8,4 C 74 % 1017,2 hPa 0,0 l/m 0 min 0 min 0,0 UV-I 0 W/m 7,7 km/h (2 Bft)
23.04.2013 05:32 9,8 C 9,0 C 74 % 1017,2 hPa 0,0 l/m 0 min 0 min 0,0 UV-I 0 W/m 5,1 km/h (1 Bft)
23.04.2013 05:34 9,8 C 9,0 C 74 % 1017,2 hPa 0,0 l/m 0 min 0 min 0,0 UV-I 0 W/m 12,9 km/h (3 Bft)
23.04.2013 05:36 9,8 C 9,0 C 74 % 1017,1 hPa 0,0 l/m 0 min 0 min 0,0 UV-I 0 W/m 2,6 km/h (1 Bft)
23.04.2013 05:38 9,8 C 8,4 C 74 % 1017,1 hPa 0,0 l/m 0 min 0 min 0,0 UV-I 0 W/m 5,1 km/h (1 Bft)
23.04.2013 05:40 9,8 C 8,4 C 75 % 1017,2 hPa 0,0 l/m 0 min 0 min 0,0 UV-I 0 W/m 5,1 km/h (1 Bft)
23.04.2013 05:42 9,8 C 8,4 C 74 % 1017,2 hPa 0,0 l/m 0 min 0 min 0,0 UV-I 0 W/m 7,7 km/h (2 Bft)
23.04.2013 05:44 9,8 C 9,0 C 74 % 1017,2 hPa 0,0 l/m 0 min 0 min 0,0 UV-I 0 W/m 12,9 km/h (3 Bft)
23.04.2013 05:46 9,8 C 9,0 C 74 % 1017,1 hPa 0,0 l/m 0 min 0 min 0,0 UV-I 0 W/m 15,4 km/h (3 Bft)
23.04.2013 05:48 9,8 C 9,0 C 74 % 1017,1 hPa 0,0 l/m 0 min 0 min 0,0 UV-I 0 W/m 7,7 km/h (2 Bft)
23.04.2013 05:50 9,8 C 9,0 C 74 % 1017,2 hPa 0,0 l/m 0 min 0 min 0,0 UV-I 0 W/m 7,7 km/h (2 Bft)
23.04.2013 05:52 9,8 C 9,0 C 74 % 1017,2 hPa 0,0 l/m 0 min 0 min 0,0 UV-I 0 W/m 15,4 km/h (3 Bft)
23.04.2013 05:54 9,9 C 9,0 C 75 % 1017,2 hPa 0,0 l/m 0 min 0 min 0,0 UV-I 0 W/m 2,6 km/h (1 Bft)
23.04.2013 05:56 9,9 C 8,4 C 75 % 1017,2 hPa 0,0 l/m 0 min 0 min 0,0 UV-I 0 W/m 10,3 km/h (2 Bft)
23.04.2013 05:58 9,9 C 8,4 C 75 % 1017,2 hPa 0,0 l/m 0 min 0 min 0,0 UV-I 0 W/m 7,7 km/h (2 Bft)
23.04.2013 06:00 9,9 C 8,4 C 75 % 1017,2 hPa 0,0 l/m 0 min 0 min 0,0 UV-I 0 W/m 10,3 km/h (2 Bft)
23.04.2013 06:02 9,9 C 9,0 C 75 % 1017,2 hPa 0,0 l/m 0 min 0 min 0,0 UV-I 0 W/m 10,3 km/h (2 Bft)
23.04.2013 06:04 9,9 C 9,0 C 75 % 1017,1 hPa 0,0 l/m 0 min 0 min 0,0 UV-I 0 W/m 10,3 km/h (2 Bft)
23.04.2013 06:06 9,9 C 9,0 C 75 % 1017,1 hPa 0,0 l/m 0 min 0 min 0,0 UV-I 0 W/m 10,3 km/h (2 Bft)
23.04.2013 06:08 9,9 C 9,0 C 75 % 1017,1 hPa 0,0 l/m 0 min 0 min 0,0 UV-I 0 W/m 10,3 km/h (2 Bft)
23.04.2013 06:10 9,9 C 9,0 C 75 % 1017,1 hPa 0,0 l/m 0 min 0 min 0,0 UV-I 0 W/m 7,7 km/h (2 Bft)
23.04.2013 06:12 9,9 C 9,0 C 75 % 1017,0 hPa 0,0 l/m 0 min 0 min 0,0 UV-I 0 W/m 5,1 km/h (1 Bft)
23.04.2013 06:14 9,9 C 9,0 C 75 % 1017,0 hPa 0,0 l/m 0 min 0 min 0,0 UV-I 0 W/m 7,7 km/h (2 Bft)
23.04.2013 06:16 9,9 C 9,0 C 75 % 1017,1 hPa 0,0 l/m 0 min 0 min 0,0 UV-I 0 W/m 10,3 km/h (2 Bft)
23.04.2013 06:18 9,9 C 9,0 C 75 % 1017,1 hPa 0,0 l/m 0 min 0 min 0,0 UV-I 0 W/m 12,9 km/h (3 Bft)
23.04.2013 06:20 9,9 C 9,0 C 75 % 1017,1 hPa 0,0 l/m 0 min 0 min 0,0 UV-I 0 W/m 18,0 km/h (3 Bft)
23.04.2013 06:22 9,9 C 9,0 C 75 % 1017,0 hPa 0,0 l/m 0 min 0 min 0,0 UV-I 0 W/m 12,9 km/h (3 Bft)
23.04.2013 06:24 9,9 C 9,0 C 75 % 1017,0 hPa 0,0 l/m 0 min 0 min 0,0 UV-I 0 W/m 7,7 km/h (2 Bft)
23.04.2013 06:26 9,9 C 9,0 C 75 % 1017,0 hPa 0,0 l/m 0 min 0 min 0,0 UV-I 0 W/m 7,7 km/h (2 Bft)
23.04.2013 06:28 9,9 C 9,0 C 75 % 1016,9 hPa 0,0 l/m 0 min 0 min 0,0 UV-I 0 W/m 7,7 km/h (2 Bft)
23.04.2013 06:30 9,9 C 9,0 C 75 % 1017,0 hPa 0,0 l/m 0 min 0 min 0,0 UV-I 0 W/m 10,3 km/h (2 Bft)
23.04.2013 06:32 9,9 C 9,0 C 75 % 1016,9 hPa 0,0 l/m 0 min 0 min 0,0 UV-I 0 W/m 10,3 km/h (2 Bft)
23.04.2013 06:34 9,9 C 9,0 C 75 % 1016,9 hPa 0,0 l/m 0 min 0 min 0,0 UV-I 0 W/m 12,9 km/h (3 Bft)
23.04.2013 06:36 9,9 C 9,0 C 75 % 1016,8 hPa 0,0 l/m 0 min 0 min 0,0 UV-I 0 W/m 12,9 km/h (3 Bft)
23.04.2013 06:38 9,9 C 9,0 C 75 % 1016,8 hPa 0,0 l/m 0 min 0 min 0,0 UV-I 5 W/m 15,4 km/h (3 Bft)
23.04.2013 06:40 9,9 C 9,0 C 75 % 1016,8 hPa 0,0 l/m 0 min 0 min 0,0 UV-I 5 W/m 15,4 km/h (3 Bft)
23.04.2013 06:42 9,9 C 9,0 C 75 % 1016,8 hPa 0,0 l/m 0 min 0 min 0,0 UV-I 5 W/m 18,0 km/h (3 Bft)
23.04.2013 06:44 9,9 C 9,0 C 76 % 1016,8 hPa 0,0 l/m 0 min 0 min 0,0 UV-I 7 W/m 12,9 km/h (3 Bft)
23.04.2013 06:46 9,9 C 9,0 C 76 % 1016,9 hPa 0,0 l/m 0 min 0 min 0,0 UV-I 7 W/m 7,7 km/h (2 Bft)
23.04.2013 06:48 9,9 C 9,0 C 76 % 1016,9 hPa 0,0 l/m 0 min 0 min 0,0 UV-I 9 W/m 12,9 km/h (3 Bft)
23.04.2013 06:50 9,9 C 9,0 C 76 % 1017,0 hPa 0,0 l/m 0 min 0 min 0,0 UV-I 9 W/m 20,6 km/h (4 Bft)
23.04.2013 06:52 9,9 C 9,0 C 76 % 1017,0 hPa 0,0 l/m 0 min 0 min 0,0 UV-I 11 W/m 7,7 km/h (2 Bft)
23.04.2013 06:54 10,0 C 9,0 C 76 % 1017,1 hPa 0,0 l/m 0 min 0 min 0,0 UV-I 12 W/m 15,4 km/h (3 Bft)
23.04.2013 06:56 9,9 C 9,0 C 76 % 1017,1 hPa 0,0 l/m 0 min 0 min 0,0 UV-I 12 W/m 20,6 km/h (4 Bft)
23.04.2013 06:58 10,0 C 9,0 C 76 % 1017,1 hPa 0,0 l/m 0 min 0 min 0,0 UV-I 12 W/m 10,3 km/h (2 Bft)
23.04.2013 07:00 10,0 C 9,0 C 76 % 1017,2 hPa 0,0 l/m 0 min 0 min 0,0 UV-I 12 W/m 12,9 km/h (3 Bft)
23.04.2013 07:02 10,0 C 9,0 C 76 % 1017,1 hPa 0,0 l/m 0 min 0 min 0,0 UV-I 12 W/m 7,7 km/h (2 Bft)
23.04.2013 07:04 10,0 C 9,0 C 76 % 1017,2 hPa 0,0 l/m 0 min 0 min 0,0 UV-I 12 W/m 7,7 km/h (2 Bft)
23.04.2013 07:06 10,0 C 9,0 C 76 % 1017,2 hPa 0,0 l/m 0 min 0 min 0,0 UV-I 12 W/m 7,7 km/h (2 Bft)
23.04.2013 07:08 10,1 C 9,0 C 76 % 1017,3 hPa 0,0 l/m 0 min 0 min 0,0 UV-I 14 W/m 0,0 km/h (0 Bft)
23.04.2013 07:10 10,1 C 9,0 C 76 % 1017,3 hPa 0,0 l/m 0 min 0 min 0,0 UV-I 14 W/m 10,3 km/h (2 Bft)
23.04.2013 07:12 10,1 C 9,0 C 76 % 1017,4 hPa 0,0 l/m 0 min 0 min 0,0 UV-I 14 W/m 7,7 km/h (2 Bft)
23.04.2013 07:14 10,1 C 9,0 C 76 % 1017,4 hPa 0,0 l/m 0 min 0 min 0,0 UV-I 12 W/m 15,4 km/h (3 Bft)
23.04.2013 07:16 10,1 C 9,0 C 76 % 1017,3 hPa 0,0 l/m 0 min 0 min 0,0 UV-I 11 W/m 10,3 km/h (2 Bft)
23.04.2013 07:18 10,1 C 9,0 C 76 % 1017,4 hPa 0,0 l/m 0 min 0 min 0,0 UV-I 12 W/m 7,7 km/h (2 Bft)
23.04.2013 07:20 10,1 C 9,0 C 76 % 1017,5 hPa 0,0 l/m 0 min 0 min 0,0 UV-I 14 W/m 12,9 km/h (3 Bft)
23.04.2013 07:22 10,1 C 9,0 C 76 % 1017,7 hPa 0,0 l/m 0 min 0 min 0,0 UV-I 16 W/m 10,3 km/h (2 Bft)
23.04.2013 07:24 10,1 C 9,0 C 76 % 1017,6 hPa 0,0 l/m 0 min 0 min 0,0 UV-I 19 W/m 10,3 km/h (2 Bft)
23.04.2013 07:26 10,1 C 9,0 C 76 % 1017,7 hPa 0,0 l/m 0 min 0 min 0,0 UV-I 25 W/m 5,1 km/h (1 Bft)
23.04.2013 07:28 10,1 C 9,0 C 76 % 1017,8 hPa 0,0 l/m 0 min 0 min 0,0 UV-I 26 W/m 5,1 km/h (1 Bft)
23.04.2013 07:30 10,2 C 9,0 C 76 % 1017,8 hPa 0,0 l/m 0 min 0 min 0,0 UV-I 26 W/m 12,9 km/h (3 Bft)
23.04.2013 07:32 10,2 C 9,6 C 76 % 1017,8 hPa 0,0 l/m 0 min 0 min 0,0 UV-I 28 W/m 2,6 km/h (1 Bft)
23.04.2013 07:34 10,2 C 9,6 C 76 % 1017,9 hPa 0,0 l/m 0 min 0 min 0,0 UV-I 32 W/m 18,0 km/h (3 Bft)
23.04.2013 07:36 10,2 C 9,6 C 76 % 1017,8 hPa 0,0 l/m 0 min 0 min 0,0 UV-I 44 W/m 7,7 km/h (2 Bft)
23.04.2013 07:38 10,2 C 9,6 C 76 % 1017,8 hPa 0,0 l/m 0 min 0 min 0,0 UV-I 53 W/m 10,3 km/h (2 Bft)
23.04.2013 07:40 10,2 C 9,6 C 76 % 1017,9 hPa 0,0 l/m 0 min 0 min 0,0 UV-I 62 W/m 7,7 km/h (2 Bft)
23.04.2013 07:42 10,2 C 9,6 C 76 % 1017,8 hPa 0,0 l/m 0 min 0 min 0,0 UV-I 47 W/m 5,1 km/h (1 Bft)
23.04.2013 07:44 10,3 C 9,6 C 76 % 1017,9 hPa 0,0 l/m 0 min 0 min 0,0 UV-I 42 W/m 20,6 km/h (4 Bft)
23.04.2013 07:46 10,3 C 9,6 C 76 % 1017,9 hPa 0,0 l/m 0 min 0 min 0,0 UV-I 42 W/m 10,3 km/h (2 Bft)
23.04.2013 07:48 10,3 C 9,6 C 76 % 1017,9 hPa 0,0 l/m 0 min 0 min 0,0 UV-I 44 W/m 20,6 km/h (4 Bft)
23.04.2013 07:50 10,3 C 9,6 C 76 % 1017,8 hPa 0,0 l/m 0 min 0 min 0,0 UV-I 46 W/m 7,7 km/h (2 Bft)
23.04.2013 07:52 10,3 C 9,6 C 76 % 1017,9 hPa 0,0 l/m 0 min 0 min 0,0 UV-I 47 W/m 7,7 km/h (2 Bft)
23.04.2013 07:54 10,3 C 9,6 C 76 % 1017,9 hPa 0,0 l/m 0 min 0 min 0,0 UV-I 53 W/m 5,1 km/h (1 Bft)
23.04.2013 07:56 10,4 C 9,6 C 76 % 1017,9 hPa 0,0 l/m 0 min 0 min 0,0 UV-I 56 W/m 10,3 km/h (2 Bft)
23.04.2013 07:58 10,4 C 9,6 C 76 % 1017,8 hPa 0,0 l/m 0 min 0 min 0,0 UV-I 60 W/m 5,1 km/h (1 Bft)
23.04.2013 08:00 10,4 C 10,1 C 76 % 1017,8 hPa 0,0 l/m 0 min 0 min 0,0 UV-I 60 W/m 0,0 km/h (0 Bft)
23.04.2013 08:02 10,4 C 10,1 C 76 % 1017,9 hPa 0,0 l/m 0 min 0 min 0,0 UV-I 56 W/m 0,0 km/h (0 Bft)
23.04.2013 08:04 10,5 C 10,1 C 76 % 1017,9 hPa 0,0 l/m 0 min 0 min 0,0 UV-I 56 W/m 7,7 km/h (2 Bft)
23.04.2013 08:06 10,5 C 10,1 C 76 % 1018,0 hPa 0,0 l/m 0 min 0 min 0,0 UV-I 54 W/m 7,7 km/h (2 Bft)
23.04.2013 08:08 10,5 C 10,1 C 76 % 1018,0 hPa 0,0 l/m 0 min 0 min 0,0 UV-I 51 W/m 10,3 km/h (2 Bft)
23.04.2013 08:10 10,6 C 10,1 C 76 % 1018,0 hPa 0,0 l/m 0 min 0 min 0,0 UV-I 51 W/m 7,7 km/h (2 Bft)
23.04.2013 08:12 10,6 C 10,1 C 76 % 1018,0 hPa 0,0 l/m 0 min 0 min 0,0 UV-I 49 W/m 5,1 km/h (1 Bft)
23.04.2013 08:14 10,6 C 10,1 C 76 % 1018,0 hPa 0,0 l/m 0 min 0 min 0,0 UV-I 53 W/m 20,6 km/h (4 Bft)
23.04.2013 08:16 10,6 C 10,1 C 76 % 1018,0 hPa 0,0 l/m 0 min 0 min 0,0 UV-I 56 W/m 10,3 km/h (2 Bft)
23.04.2013 08:18 10,6 C 10,1 C 76 % 1018,0 hPa 0,0 l/m 0 min 0 min 0,0 UV-I 69 W/m 10,3 km/h (2 Bft)
23.04.2013 08:20 10,6 C 10,1 C 76 % 1017,9 hPa 0,0 l/m 0 min 0 min 0,0 UV-I 72 W/m 12,9 km/h (3 Bft)
23.04.2013 08:22 10,6 C 10,1 C 76 % 1018,0 hPa 0,0 l/m 0 min 0 min 0,0 UV-I 81 W/m 7,7 km/h (2 Bft)
23.04.2013 08:24 10,7 C 10,1 C 76 % 1018,0 hPa 0,0 l/m 0 min 0 min 0,0 UV-I 70 W/m 10,3 km/h (2 Bft)
23.04.2013 08:26 10,7 C 10,1 C 76 % 1018,1 hPa 0,0 l/m 0 min 0 min 0,0 UV-I 67 W/m 7,7 km/h (2 Bft)
23.04.2013 08:28 10,7 C 10,1 C 76 % 1018,1 hPa 0,0 l/m 0 min 0 min 0,0 UV-I 63 W/m 10,3 km/h (2 Bft)
23.04.2013 08:30 10,7 C 10,1 C 76 % 1018,1 hPa 0,0 l/m 0 min 0 min 0,0 UV-I 63 W/m 2,6 km/h (1 Bft)
23.04.2013 08:32 10,8 C 10,1 C 76 % 1018,0 hPa 0,0 l/m 0 min 0 min 0,0 UV-I 63 W/m 7,7 km/h (2 Bft)
23.04.2013 08:34 10,8 C 10,1 C 77 % 1018,2 hPa 0,0 l/m 0 min 0 min 0,0 UV-I 76 W/m 7,7 km/h (2 Bft)
23.04.2013 08:36 10,8 C 10,1 C 77 % 1018,3 hPa 0,0 l/m 0 min 0 min 0,0 UV-I 81 W/m 15,4 km/h (3 Bft)
23.04.2013 08:38 10,8 C 10,1 C 77 % 1018,3 hPa 0,0 l/m 0 min 0 min 0,0 UV-I 77 W/m 20,6 km/h (4 Bft)
23.04.2013 08:40 10,8 C 10,1 C 77 % 1018,3 hPa 0,0 l/m 0 min 0 min 0,0 UV-I 70 W/m 12,9 km/h (3 Bft)
23.04.2013 08:42 10,8 C 10,1 C 77 % 1018,3 hPa 0,0 l/m 0 min 0 min 0,0 UV-I 74 W/m 7,7 km/h (2 Bft)
23.04.2013 08:44 10,8 C 10,1 C 78 % 1018,5 hPa 0,0 l/m 0 min 0 min 0,0 UV-I 77 W/m 18,0 km/h (3 Bft)
23.04.2013 08:46 10,8 C 10,1 C 78 % 1018,5 hPa 0,0 l/m 0 min 0 min 0,0 UV-I 86 W/m 23,2 km/h (4 Bft)
23.04.2013 08:48 10,8 C 10,1 C 79 % 1018,4 hPa 0,0 l/m 0 min 0 min 0,0 UV-I 88 W/m 10,3 km/h (2 Bft)
23.04.2013 08:50 10,8 C 10,1 C 79 % 1018,5 hPa 0,0 l/m 0 min 0 min 0,0 UV-I 88 W/m 12,9 km/h (3 Bft)
23.04.2013 08:52 10,8 C 10,1 C 79 % 1018,5 hPa 0,0 l/m 0 min 0 min 0,0 UV-I 102 W/m 12,9 km/h (3 Bft)
23.04.2013 08:54 10,8 C 10,1 C 79 % 1018,5 hPa 0,0 l/m 0 min 0 min 0,0 UV-I 100 W/m 10,3 km/h (2 Bft)
23.04.2013 08:56 10,8 C 10,1 C 80 % 1018,5 hPa 0,0 l/m 0 min 0 min 0,0 UV-I 104 W/m 18,0 km/h (3 Bft)
23.04.2013 08:58 10,8 C 10,1 C 81 % 1018,6 hPa 0,0 l/m 0 min 0 min 0,0 UV-I 98 W/m 7,7 km/h (2 Bft)
23.04.2013 09:00 10,8 C 10,1 C 81 % 1018,5 hPa 0,0 l/m 0 min 0 min 0,0 UV-I 97 W/m 18,0 km/h (3 Bft)
23.04.2013 09:02 10,8 C 10,1 C 81 % 1018,6 hPa 0,0 l/m 0 min 0 min 0,0 UV-I 98 W/m 10,3 km/h (2 Bft)
23.04.2013 09:04 10,8 C 10,1 C 81 % 1018,8 hPa 0,0 l/m 0 min 0 min 0,0 UV-I 97 W/m 15,4 km/h (3 Bft)
23.04.2013 09:06 10,8 C 10,1 C 83 % 1018,8 hPa 0,0 l/m 0 min 0 min 0,0 UV-I 109 W/m 15,4 km/h (3 Bft)
23.04.2013 09:08 10,8 C 10,1 C 83 % 1018,7 hPa 0,0 l/m 0 min 0 min 0,0 UV-I 109 W/m 15,4 km/h (3 Bft)
23.04.2013 09:10 10,7 C 10,1 C 83 % 1018,8 hPa 0,0 l/m 0 min 0 min 0,0 UV-I 97 W/m 18,0 km/h (3 Bft)
23.04.2013 09:12 10,7 C 10,1 C 84 % 1018,8 hPa 0,0 l/m 0 min 0 min 0,0 UV-I 90 W/m 10,3 km/h (2 Bft)
23.04.2013 09:14 10,7 C 10,1 C 84 % 1018,9 hPa 0,0 l/m 0 min 0 min 0,0 UV-I 86 W/m 18,0 km/h (3 Bft)
23.04.2013 09:16 10,6 C 10,1 C 84 % 1018,9 hPa 0,0 l/m 0 min 0 min 0,0 UV-I 97 W/m 15,4 km/h (3 Bft)
23.04.2013 09:18 10,6 C 10,1 C 84 % 1018,8 hPa 0,0 l/m 0 min 0 min 0,0 UV-I 88 W/m 5,1 km/h (1 Bft)
23.04.2013 09:20 10,6 C 10,1 C 84 % 1018,9 hPa 0,0 l/m 0 min 0 min 0,0 UV-I 84 W/m 5,1 km/h (1 Bft)
23.04.2013 09:22 10,7 C 10,1 C 84 % 1019,1 hPa 0,0 l/m 0 min 0 min 0,0 UV-I 84 W/m 7,7 km/h (2 Bft)
23.04.2013 09:24 10,7 C 10,1 C 84 % 1019,0 hPa 0,0 l/m 0 min 0 min 0,0 UV-I 88 W/m 7,7 km/h (2 Bft)
23.04.2013 09:26 10,7 C 10,1 C 84 % 1019,0 hPa 0,0 l/m 0 min 0 min 0,0 UV-I 88 W/m 10,3 km/h (2 Bft)
23.04.2013 09:28 10,7 C 10,1 C 85 % 1019,1 hPa 0,0 l/m 0 min 0 min 0,0 UV-I 91 W/m 7,7 km/h (2 Bft)
23.04.2013 09:30 10,7 C 10,1 C 85 % 1019,1 hPa 0,0 l/m 0 min 0 min 0,0 UV-I 97 W/m 7,7 km/h (2 Bft)
23.04.2013 09:32 10,6 C 10,1 C 85 % 1019,1 hPa 0,0 l/m 0 min 0 min 0,0 UV-I 91 W/m 18,0 km/h (3 Bft)
23.04.2013 09:34 10,6 C 10,1 C 85 % 1019,0 hPa 0,0 l/m 0 min 0 min 0,0 UV-I 102 W/m 15,4 km/h (3 Bft)
23.04.2013 09:36 10,6 C 10,1 C 85 % 1019,1 hPa 0,0 l/m 0 min 0 min 0,0 UV-I 105 W/m 20,6 km/h (4 Bft)
23.04.2013 09:38 10,6 C 10,1 C 85 % 1019,0 hPa 0,0 l/m 0 min 0 min 0,0 UV-I 109 W/m 12,9 km/h (3 Bft)
23.04.2013 09:40 10,6 C 10,1 C 86 % 1019,1 hPa 0,0 l/m 0 min 0 min 0,0 UV-I 113 W/m 15,4 km/h (3 Bft)
23.04.2013 09:42 10,5 C 10,1 C 86 % 1019,2 hPa 0,0 l/m 0 min 0 min 0,0 UV-I 111 W/m 12,9 km/h (3 Bft)
23.04.2013 09:44 10,5 C 10,1 C 86 % 1019,2 hPa 0,0 l/m 0 min 0 min 0,0 UV-I 123 W/m 12,9 km/h (3 Bft)
23.04.2013 09:46 10,5 C 10,7 C 87 % 1019,2 hPa 0,0 l/m 0 min 0 min 0,0 UV-I 130 W/m 15,4 km/h (3 Bft)
23.04.2013 09:48 10,6 C 10,7 C 87 % 1019,2 hPa 0,0 l/m 0 min 0 min 0,0 UV-I 121 W/m 10,3 km/h (2 Bft)
23.04.2013 09:50 10,6 C 10,7 C 87 % 1019,3 hPa 0,0 l/m 0 min 0 min 0,0 UV-I 118 W/m 2,6 km/h (1 Bft)
23.04.2013 09:52 10,6 C 10,7 C 88 % 1019,3 hPa 0,0 l/m 0 min 0 min 0,0 UV-I 128 W/m 0,0 km/h (0 Bft)
23.04.2013 09:54 10,6 C 10,7 C 88 % 1019,3 hPa 0,0 l/m 0 min 0 min 0,0 UV-I 113 W/m 10,3 km/h (2 Bft)
23.04.2013 09:56 10,6 C 10,7 C 88 % 1019,4 hPa 0,0 l/m 0 min 0 min 0,0 UV-I 109 W/m 15,4 km/h (3 Bft)
23.04.2013 09:58 10,6 C 10,7 C 88 % 1019,3 hPa 0,0 l/m 0 min 0 min 0,0 UV-I 128 W/m 15,4 km/h (3 Bft)
23.04.2013 10:00 10,6 C 10,7 C 88 % 1019,5 hPa 0,0 l/m 0 min 0 min 0,0 UV-I 139 W/m 12,9 km/h (3 Bft)
23.04.2013 10:02 10,6 C 10,7 C 88 % 1019,3 hPa 0,0 l/m 0 min 0 min 0,0 UV-I 144 W/m 15,4 km/h (3 Bft)
23.04.2013 10:04 10,6 C 10,7 C 88 % 1019,4 hPa 0,0 l/m 0 min 0 min 0,0 UV-I 146 W/m 15,4 km/h (3 Bft)
23.04.2013 10:06 10,6 C 10,7 C 88 % 1019,4 hPa 0,0 l/m 0 min 0 min 0,0 UV-I 148 W/m 15,4 km/h (3 Bft)
23.04.2013 10:08 10,6 C 10,7 C 89 % 1019,4 hPa 0,0 l/m 0 min 0 min 0,0 UV-I 151 W/m 15,4 km/h (3 Bft)
23.04.2013 10:10 10,6 C 10,7 C 89 % 1019,4 hPa 0,0 l/m 0 min 0 min 0,0 UV-I 155 W/m 7,7 km/h (2 Bft)
23.04.2013 10:12 10,6 C 10,7 C 89 % 1019,4 hPa 0,0 l/m 0 min 0 min 0,0 UV-I 155 W/m 2,6 km/h (1 Bft)
23.04.2013 10:14 10,6 C 11,2 C 89 % 1019,5 hPa 0,0 l/m 0 min 0 min 0,0 UV-I 162 W/m 10,3 km/h (2 Bft)
23.04.2013 10:16 10,6 C 10,7 C 89 % 1019,5 hPa 0,0 l/m 0 min 0 min 0,0 UV-I 162 W/m 15,4 km/h (3 Bft)
23.04.2013 10:18 10,7 C 10,7 C 89 % 1019,6 hPa 0,0 l/m 0 min 0 min 0,0 UV-I 167 W/m 20,6 km/h (4 Bft)
23.04.2013 10:20 10,7 C 10,7 C 89 % 1019,5 hPa 0,0 l/m 0 min 0 min 0,0 UV-I 158 W/m 10,3 km/h (2 Bft)
23.04.2013 10:22 10,7 C 10,7 C 89 % 1019,5 hPa 0,0 l/m 0 min 0 min 0,0 UV-I 160 W/m 15,4 km/h (3 Bft)
23.04.2013 10:24 10,7 C 10,7 C 89 % 1019,5 hPa 0,0 l/m 0 min 0 min 0,0 UV-I 155 W/m 2,6 km/h (1 Bft)
23.04.2013 10:26 10,7 C 11,2 C 89 % 1019,5 hPa 0,0 l/m 0 min 0 min 0,0 UV-I 163 W/m 12,9 km/h (3 Bft)
23.04.2013 10:28 10,7 C 11,2 C 89 % 1019,4 hPa 0,0 l/m 0 min 0 min 0,0 UV-I 148 W/m 2,6 km/h (1 Bft)
23.04.2013 10:30 10,8 C 11,2 C 89 % 1019,6 hPa 0,0 l/m 0 min 0 min 0,0 UV-I 160 W/m 12,9 km/h (3 Bft)
23.04.2013 10:32 10,8 C 11,2 C 89 % 1019,5 hPa 0,0 l/m 0 min 0 min 0,0 UV-I 156 W/m 5,1 km/h (1 Bft)
23.04.2013 10:34 10,8 C 11,2 C 89 % 1019,5 hPa 0,0 l/m 0 min 0 min 0,0 UV-I 141 W/m 12,9 km/h (3 Bft)
23.04.2013 10:36 10,9 C 11,2 C 89 % 1019,5 hPa 0,0 l/m 0 min 0 min 0,0 UV-I 139 W/m 12,9 km/h (3 Bft)
23.04.2013 10:38 10,9 C 11,2 C 89 % 1019,7 hPa 0,0 l/m 0 min 0 min 0,0 UV-I 142 W/m 7,7 km/h (2 Bft)
23.04.2013 10:40 10,9 C 11,2 C 89 % 1019,6 hPa 0,0 l/m 0 min 0 min 0,0 UV-I 135 W/m 10,3 km/h (2 Bft)
23.04.2013 10:42 10,9 C 11,2 C 89 % 1019,6 hPa 0,0 l/m 0 min 0 min 0,0 UV-I 151 W/m 12,9 km/h (3 Bft)
23.04.2013 10:44 11,0 C 11,2 C 89 % 1019,7 hPa 0,0 l/m 0 min 0 min 0,0 UV-I 114 W/m 7,7 km/h (2 Bft)
23.04.2013 10:46 11,0 C 11,2 C 89 % 1019,6 hPa 0,0 l/m 0 min 0 min 0,0 UV-I 132 W/m 12,9 km/h (3 Bft)
23.04.2013 10:48 11,0 C 11,2 C 89 % 1019,7 hPa 0,0 l/m 0 min 0 min 0,0 UV-I 109 W/m 10,3 km/h (2 Bft)
23.04.2013 10:50 11,0 C 11,2 C 89 % 1019,6 hPa 0,0 l/m 0 min 0 min 0,0 UV-I 105 W/m 12,9 km/h (3 Bft)
23.04.2013 10:52 11,1 C 11,2 C 89 % 1019,7 hPa 0,0 l/m 0 min 0 min 0,0 UV-I 111 W/m 5,1 km/h (1 Bft)
23.04.2013 10:54 11,1 C 11,2 C 88 % 1019,7 hPa 0,0 l/m 0 min 0 min 0,0 UV-I 102 W/m 10,3 km/h (2 Bft)
23.04.2013 10:56 11,1 C 11,2 C 88 % 1019,7 hPa 0,0 l/m 0 min 0 min 0,0 UV-I 105 W/m 2,6 km/h (1 Bft)
23.04.2013 10:58 11,1 C 11,2 C 88 % 1019,7 hPa 0,0 l/m 0 min 0 min 0,0 UV-I 111 W/m 7,7 km/h (2 Bft)
23.04.2013 11:00 11,1 C 11,2 C 88 % 1019,8 hPa 0,0 l/m 0 min 0 min 0,0 UV-I 113 W/m 10,3 km/h (2 Bft)
23.04.2013 11:02 11,1 C 11,2 C 88 % 1019,7 hPa 0,0 l/m 0 min 0 min 0,0 UV-I 113 W/m 5,1 km/h (1 Bft)
23.04.2013 11:04 11,2 C 11,2 C 87 % 1019,8 hPa 0,0 l/m 0 min 0 min 0,0 UV-I 114 W/m 12,9 km/h (3 Bft)
23.04.2013 11:06 11,2 C 11,2 C 87 % 1019,8 hPa 0,0 l/m 0 min 0 min 0,0 UV-I 113 W/m 7,7 km/h (2 Bft)
23.04.2013 11:08 11,2 C 11,2 C 88 % 1019,7 hPa 0,0 l/m 0 min 0 min 0,0 UV-I 121 W/m 2,6 km/h (1 Bft)
23.04.2013 11:10 11,2 C 11,2 C 87 % 1019,7 hPa 0,0 l/m 0 min 0 min 0,0 UV-I 130 W/m 18,0 km/h (3 Bft)
23.04.2013 11:12 11,3 C 11,2 C 87 % 1019,7 hPa 0,0 l/m 0 min 0 min 0,0 UV-I 125 W/m 25,7 km/h (4 Bft)
23.04.2013 11:14 11,3 C 11,2 C 86 % 1019,7 hPa 0,0 l/m 0 min 0 min 0,0 UV-I 114 W/m 7,7 km/h (2 Bft)
23.04.2013 11:16 11,3 C 11,2 C 86 % 1019,8 hPa 0,0 l/m 0 min 0 min 0,0 UV-I 125 W/m 12,9 km/h (3 Bft)
23.04.2013 11:18 11,4 C 11,2 C 86 % 1019,7 hPa 0,0 l/m 0 min 0 min 0,0 UV-I 142 W/m 15,4 km/h (3 Bft)
23.04.2013 11:20 11,4 C 11,2 C 86 % 1019,8 hPa 0,0 l/m 0 min 0 min 0,5 UV-I 153 W/m 12,9 km/h (3 Bft)
23.04.2013 11:22 11,4 C 11,2 C 86 % 1019,8 hPa 0,0 l/m 0 min 0 min 0,0 UV-I 142 W/m 10,3 km/h (2 Bft)
23.04.2013 11:24 11,4 C 11,8 C 86 % 1019,8 hPa 0,0 l/m 0 min 0 min 0,0 UV-I 148 W/m 10,3 km/h (2 Bft)
23.04.2013 11:26 11,5 C 11,8 C 86 % 1019,8 hPa 0,0 l/m 0 min 0 min 0,0 UV-I 142 W/m 10,3 km/h (2 Bft)
23.04.2013 11:28 11,6 C 11,8 C 86 % 1019,8 hPa 0,0 l/m 0 min 0 min 0,0 UV-I 141 W/m 12,9 km/h (3 Bft)
23.04.2013 11:30 11,6 C 11,8 C 85 % 1019,9 hPa 0,0 l/m 0 min 0 min 0,5 UV-I 158 W/m 12,9 km/h (3 Bft)
23.04.2013 11:32 11,6 C 11,8 C 85 % 1019,9 hPa 0,0 l/m 0 min 0 min 0,0 UV-I 148 W/m 7,7 km/h (2 Bft)
23.04.2013 11:34 11,7 C 11,8 C 85 % 1020,0 hPa 0,0 l/m 0 min 0 min 0,0 UV-I 142 W/m 18,0 km/h (3 Bft)
23.04.2013 11:36 11,7 C 11,8 C 85 % 1019,9 hPa 0,0 l/m 0 min 0 min 0,0 UV-I 141 W/m 5,1 km/h (1 Bft)
23.04.2013 11:38 11,7 C 11,8 C 85 % 1019,9 hPa 0,0 l/m 0 min 0 min 0,0 UV-I 139 W/m 28,3 km/h (4 Bft)
23.04.2013 11:40 11,8 C 11,8 C 86 % 1020,0 hPa 0,0 l/m 0 min 0 min 0,0 UV-I 142 W/m 15,4 km/h (3 Bft)
23.04.2013 11:42 11,8 C 11,8 C 85 % 1020,1 hPa 0,0 l/m 0 min 0 min 0,0 UV-I 148 W/m 12,9 km/h (3 Bft)
23.04.2013 11:44 11,8 C 11,8 C 85 % 1020,1 hPa 0,0 l/m 0 min 0 min 0,6 UV-I 162 W/m 12,9 km/h (3 Bft)
23.04.2013 11:46 11,8 C 11,8 C 86 % 1020,2 hPa 0,0 l/m 0 min 0 min 0,0 UV-I 144 W/m 7,7 km/h (2 Bft)
23.04.2013 11:48 11,8 C 11,8 C 86 % 1020,1 hPa 0,0 l/m 0 min 0 min 0,5 UV-I 160 W/m 12,9 km/h (3 Bft)
23.04.2013 11:50 11,8 C 11,8 C 85 % 1020,1 hPa 0,0 l/m 0 min 0 min 0,7 UV-I 176 W/m 12,9 km/h (3 Bft)
23.04.2013 11:52 11,8 C 11,8 C 85 % 1020,1 hPa 0,0 l/m 0 min 0 min 0,7 UV-I 169 W/m 10,3 km/h (2 Bft)
23.04.2013 11:54 11,9 C 12,3 C 85 % 1020,0 hPa 0,0 l/m 0 min 0 min 0,8 UV-I 193 W/m 20,6 km/h (4 Bft)
23.04.2013 11:56 11,9 C 12,3 C 85 % 1020,0 hPa 0,0 l/m 0 min 0 min 0,9 UV-I 193 W/m 18,0 km/h (3 Bft)
23.04.2013 11:58 11,9 C 12,3 C 85 % 1020,0 hPa 0,0 l/m 0 min 0 min 0,9 UV-I 197 W/m 12,9 km/h (3 Bft)
23.04.2013 12:00 11,9 C 12,3 C 85 % 1020,1 hPa 0,0 l/m 0 min 0 min 0,8 UV-I 195 W/m 7,7 km/h (2 Bft)
23.04.2013 12:02 12,1 C 12,9 C 85 % 1020,0 hPa 0,0 l/m 0 min 0 min 1,1 UV-I 207 W/m 10,3 km/h (2 Bft)
23.04.2013 12:04 12,1 C 12,9 C 85 % 1020,0 hPa 0,0 l/m 0 min 0 min 1,1 UV-I 209 W/m 5,1 km/h (1 Bft)
23.04.2013 12:06 12,2 C 12,9 C 85 % 1020,0 hPa 0,0 l/m 0 min 0 min 1,0 UV-I 209 W/m 10,3 km/h (2 Bft)
23.04.2013 12:08 12,2 C 12,9 C 84 % 1020,0 hPa 0,0 l/m 0 min 0 min 1,0 UV-I 207 W/m 12,9 km/h (3 Bft)
23.04.2013 12:10 12,3 C 12,9 C 84 % 1020,0 hPa 0,0 l/m 0 min 0 min 0,9 UV-I 202 W/m 10,3 km/h (2 Bft)
23.04.2013 12:12 12,3 C 12,9 C 84 % 1020,1 hPa 0,0 l/m 0 min 0 min 1,4 UV-I 243 W/m 20,6 km/h (4 Bft)
23.04.2013 12:14 12,3 C 12,9 C 83 % 1020,1 hPa 0,0 l/m 0 min 0 min 1,7 UV-I 281 W/m 15,4 km/h (3 Bft)
23.04.2013 12:16 12,4 C 13,4 C 83 % 1020,0 hPa 0,0 l/m 0 min 0 min 2,1 UV-I 322 W/m 10,3 km/h (2 Bft)
23.04.2013 12:18 12,6 C 14,0 C 84 % 1020,1 hPa 0,0 l/m 0 min 0 min 2,1 UV-I 301 W/m 12,9 km/h (3 Bft)
23.04.2013 12:20 12,7 C 14,6 C 83 % 1020,1 hPa 0,0 l/m 0 min 0 min 2,4 UV-I 341 W/m 10,3 km/h (2 Bft)
23.04.2013 12:22 12,8 C 14,6 C 83 % 1020,1 hPa 0,0 l/m 2 min 0 min 2,9 UV-I 487 W/m 18,0 km/h (3 Bft)
23.04.2013 12:24 12,8 C 15,1 C 83 % 1019,9 hPa 0,0 l/m 0 min 0 min 2,6 UV-I 373 W/m 7,7 km/h (2 Bft)
23.04.2013 12:26 13,0 C 15,1 C 83 % 1020,1 hPa 0,0 l/m 0 min 0 min 2,6 UV-I 381 W/m 18,0 km/h (3 Bft)
23.04.2013 12:28 13,2 C 15,1 C 82 % 1020,0 hPa 0,0 l/m 2 min 0 min 2,6 UV-I 434 W/m 15,4 km/h (3 Bft)
23.04.2013 12:30 13,2 C 15,1 C 82 % 1020,1 hPa 0,0 l/m 0 min 0 min 2,5 UV-I 378 W/m 12,9 km/h (3 Bft)
23.04.2013 12:32 13,3 C 15,1 C 81 % 1020,0 hPa 0,0 l/m 0 min 0 min 2,3 UV-I 364 W/m 12,9 km/h (3 Bft)
23.04.2013 12:34 13,4 C 15,1 C 81 % 1020,0 hPa 0,0 l/m 0 min 0 min 1,5 UV-I 253 W/m 10,3 km/h (2 Bft)
23.04.2013 12:36 13,4 C 14,6 C 81 % 1019,9 hPa 0,0 l/m 0 min 0 min 1,6 UV-I 279 W/m 12,9 km/h (3 Bft)
23.04.2013 12:38 13,6 C 14,6 C 80 % 1019,9 hPa 0,0 l/m 0 min 0 min 1,8 UV-I 279 W/m 15,4 km/h (3 Bft)
23.04.2013 12:40 13,6 C 14,6 C 80 % 1019,9 hPa 0,0 l/m 0 min 0 min 1,8 UV-I 278 W/m 7,7 km/h (2 Bft)
23.04.2013 12:42 13,7 C 14,6 C 80 % 1019,9 hPa 0,0 l/m 0 min 0 min 2,2 UV-I 336 W/m 10,3 km/h (2 Bft)
23.04.2013 12:44 13,7 C 15,1 C 80 % 1019,9 hPa 0,0 l/m 0 min 0 min 2,0 UV-I 309 W/m 2,6 km/h (1 Bft)
23.04.2013 12:46 13,8 C 15,1 C 80 % 1019,9 hPa 0,0 l/m 0 min 0 min 1,4 UV-I 246 W/m 12,9 km/h (3 Bft)
23.04.2013 12:48 13,8 C 14,6 C 80 % 1019,8 hPa 0,0 l/m 0 min 0 min 1,3 UV-I 220 W/m 5,1 km/h (1 Bft)
23.04.2013 12:50 13,9 C 14,6 C 79 % 1019,9 hPa 0,0 l/m 0 min 0 min 1,5 UV-I 251 W/m 15,4 km/h (3 Bft)
23.04.2013 12:52 13,9 C 14,6 C 79 % 1019,9 hPa 0,0 l/m 0 min 0 min 1,3 UV-I 221 W/m 10,3 km/h (2 Bft)
23.04.2013 12:54 13,9 C 14,6 C 79 % 1019,9 hPa 0,0 l/m 0 min 0 min 1,3 UV-I 221 W/m 7,7 km/h (2 Bft)
23.04.2013 12:56 13,9 C 14,6 C 78 % 1019,8 hPa 0,0 l/m 0 min 0 min 1,2 UV-I 213 W/m 15,4 km/h (3 Bft)
23.04.2013 12:58 13,9 C 14,0 C 78 % 1019,9 hPa 0,0 l/m 0 min 0 min 1,3 UV-I 218 W/m 15,4 km/h (3 Bft)
23.04.2013 13:00 13,9 C 14,0 C 78 % 1019,8 hPa 0,0 l/m 0 min 0 min 1,3 UV-I 209 W/m 10,3 km/h (2 Bft)
23.04.2013 13:02 13,9 C 14,0 C 78 % 1019,9 hPa 0,0 l/m 0 min 0 min 1,3 UV-I 227 W/m 12,9 km/h (3 Bft)
23.04.2013 13:04 13,9 C 14,6 C 78 % 1019,9 hPa 0,0 l/m 0 min 0 min 1,3 UV-I 227 W/m 15,4 km/h (3 Bft)
23.04.2013 13:06 13,9 C 14,0 C 78 % 1019,9 hPa 0,0 l/m 0 min 0 min 1,1 UV-I 206 W/m 10,3 km/h (2 Bft)
23.04.2013 13:08 13,9 C 14,0 C 78 % 1019,9 hPa 0,0 l/m 0 min 0 min 1,0 UV-I 188 W/m 12,9 km/h (3 Bft)
23.04.2013 13:10 13,8 C 14,0 C 78 % 1020,0 hPa 0,0 l/m 0 min 0 min 1,2 UV-I 214 W/m 15,4 km/h (3 Bft)
23.04.2013 13:12 13,8 C 14,0 C 78 % 1019,9 hPa 0,0 l/m 0 min 0 min 1,4 UV-I 225 W/m 15,4 km/h (3 Bft)
23.04.2013 13:14 13,8 C 14,0 C 78 % 1019,9 hPa 0,0 l/m 0 min 0 min 1,3 UV-I 211 W/m 20,6 km/h (4 Bft)
23.04.2013 13:16 13,8 C 14,0 C 78 % 1019,9 hPa 0,0 l/m 0 min 0 min 1,4 UV-I 225 W/m 18,0 km/h (3 Bft)
23.04.2013 13:18 13,9 C 14,6 C 79 % 1019,8 hPa 0,0 l/m 0 min 0 min 1,7 UV-I 260 W/m 10,3 km/h (2 Bft)
23.04.2013 13:20 13,9 C 14,6 C 79 % 1019,9 hPa 0,0 l/m 0 min 0 min 1,6 UV-I 234 W/m 10,3 km/h (2 Bft)
23.04.2013 13:22 14,0 C 14,6 C 79 % 1019,9 hPa 0,0 l/m 0 min 0 min 1,2 UV-I 197 W/m 10,3 km/h (2 Bft)
23.04.2013 13:24 14,1 C 14,6 C 79 % 1019,9 hPa 0,0 l/m 0 min 0 min 1,0 UV-I 192 W/m 7,7 km/h (2 Bft)
23.04.2013 13:26 14,1 C 14,6 C 78 % 1020,0 hPa 0,0 l/m 0 min 0 min 1,3 UV-I 204 W/m 15,4 km/h (3 Bft)
23.04.2013 13:28 14,1 C 14,6 C 79 % 1020,0 hPa 0,0 l/m 0 min 0 min 1,0 UV-I 174 W/m 7,7 km/h (2 Bft)
23.04.2013 13:30 14,1 C 14,6 C 78 % 1020,0 hPa 0,0 l/m 0 min 0 min 0,8 UV-I 155 W/m 7,7 km/h (2 Bft)
23.04.2013 13:32 14,1 C 14,0 C 78 % 1020,0 hPa 0,0 l/m 0 min 0 min 0,6 UV-I 163 W/m 12,9 km/h (3 Bft)
23.04.2013 13:34 14,1 C 14,0 C 78 % 1020,0 hPa 0,0 l/m 0 min 0 min 1,5 UV-I 237 W/m 7,7 km/h (2 Bft)
23.04.2013 13:36 14,1 C 14,6 C 79 % 1020,1 hPa 0,0 l/m 0 min 0 min 1,8 UV-I 257 W/m 7,7 km/h (2 Bft)
23.04.2013 13:38 14,2 C 14,6 C 78 % 1020,1 hPa 0,0 l/m 0 min 0 min 1,2 UV-I 167 W/m 15,4 km/h (3 Bft)
23.04.2013 13:40 14,1 C 14,6 C 78 % 1020,1 hPa 0,0 l/m 0 min 0 min 0,5 UV-I 121 W/m 10,3 km/h (2 Bft)
23.04.2013 13:42 14,1 C 14,0 C 78 % 1020,2 hPa 0,0 l/m 0 min 0 min 0,0 UV-I 120 W/m 23,2 km/h (4 Bft)
23.04.2013 13:44 14,1 C 13,4 C 78 % 1020,2 hPa 0,0 l/m 0 min 0 min 0,0 UV-I 90 W/m 15,4 km/h (3 Bft)
23.04.2013 13:46 14,0 C 13,4 C 78 % 1020,3 hPa 0,0 l/m 0 min 0 min 0,0 UV-I 86 W/m 15,4 km/h (3 Bft)
23.04.2013 13:48 13,9 C 13,4 C 78 % 1020,4 hPa 0,0 l/m 0 min 0 min 0,0 UV-I 109 W/m 7,7 km/h (2 Bft)
23.04.2013 13:50 13,9 C 13,4 C 79 % 1020,3 hPa 0,0 l/m 0 min 0 min 0,0 UV-I 90 W/m 12,9 km/h (3 Bft)
23.04.2013 13:52 13,8 C 13,4 C 79 % 1020,3 hPa 0,0 l/m 0 min 0 min 0,0 UV-I 95 W/m 10,3 km/h (2 Bft)
23.04.2013 13:54 13,8 C 13,4 C 79 % 1020,5 hPa 0,0 l/m 0 min 0 min 0,0 UV-I 95 W/m 12,9 km/h (3 Bft)
23.04.2013 13:56 13,8 C 12,9 C 79 % 1020,6 hPa 0,0 l/m 0 min 0 min 0,0 UV-I 107 W/m 12,9 km/h (3 Bft)
23.04.2013 13:58 13,7 C 12,9 C 79 % 1020,6 hPa 0,0 l/m 0 min 0 min 0,0 UV-I 111 W/m 12,9 km/h (3 Bft)
23.04.2013 14:00 13,7 C 13,4 C 79 % 1020,6 hPa 0,0 l/m 0 min 0 min 0,0 UV-I 104 W/m 7,7 km/h (2 Bft)
23.04.2013 14:02 13,7 C 13,4 C 80 % 1020,6 hPa 0,0 l/m 0 min 0 min 0,0 UV-I 127 W/m 10,3 km/h (2 Bft)
23.04.2013 14:04 13,7 C 13,4 C 79 % 1020,6 hPa 0,0 l/m 0 min 0 min 0,5 UV-I 156 W/m 2,6 km/h (1 Bft)
23.04.2013 14:06 13,7 C 13,4 C 80 % 1020,6 hPa 0,0 l/m 0 min 0 min 0,0 UV-I 132 W/m 7,7 km/h (2 Bft)
23.04.2013 14:08 13,7 C 13,4 C 80 % 1020,7 hPa 0,0 l/m 0 min 0 min 0,0 UV-I 109 W/m 12,9 km/h (3 Bft)
23.04.2013 14:10 13,7 C 13,4 C 80 % 1020,7 hPa 0,0 l/m 0 min 0 min 0,0 UV-I 114 W/m 7,7 km/h (2 Bft)
23.04.2013 14:12 13,7 C 13,4 C 80 % 1020,7 hPa 0,0 l/m 0 min 0 min 0,0 UV-I 141 W/m 18,0 km/h (3 Bft)
23.04.2013 14:14 13,7 C 13,4 C 80 % 1020,7 hPa 0,0 l/m 0 min 0 min 0,5 UV-I 151 W/m 12,9 km/h (3 Bft)
23.04.2013 14:16 13,6 C 13,4 C 80 % 1020,8 hPa 0,0 l/m 0 min 0 min 0,7 UV-I 171 W/m 12,9 km/h (3 Bft)
23.04.2013 14:18 13,7 C 13,4 C 81 % 1020,8 hPa 0,0 l/m 0 min 0 min 0,9 UV-I 190 W/m 12,9 km/h (3 Bft)
23.04.2013 14:20 13,7 C 14,0 C 81 % 1020,8 hPa 0,0 l/m 0 min 0 min 1,2 UV-I 262 W/m 12,9 km/h (3 Bft)
23.04.2013 14:22 13,7 C 14,0 C 81 % 1020,8 hPa 0,0 l/m 0 min 0 min 1,7 UV-I 278 W/m 10,3 km/h (2 Bft)
23.04.2013 14:24 13,8 C 14,6 C 81 % 1020,8 hPa 0,0 l/m 0 min 0 min 2,2 UV-I 341 W/m 12,9 km/h (3 Bft)
23.04.2013 14:26 13,8 C 15,1 C 81 % 1020,9 hPa 0,0 l/m 0 min 0 min 2,1 UV-I 318 W/m 18,0 km/h (3 Bft)
23.04.2013 14:28 13,9 C 15,1 C 80 % 1020,9 hPa 0,0 l/m 0 min 0 min 1,5 UV-I 246 W/m 12,9 km/h (3 Bft)
23.04.2013 14:30 13,9 C 14,6 C 80 % 1020,9 hPa 0,0 l/m 0 min 0 min 1,2 UV-I 213 W/m 18,0 km/h (3 Bft)
23.04.2013 14:32 13,9 C 14,6 C 80 % 1020,8 hPa 0,0 l/m 0 min 0 min 0,9 UV-I 178 W/m 12,9 km/h (3 Bft)
23.04.2013 14:34 13,9 C 14,6 C 79 % 1020,9 hPa 0,0 l/m 0 min 0 min 0,8 UV-I 183 W/m 15,4 km/h (3 Bft)
23.04.2013 14:36 13,9 C 14,6 C 80 % 1021,0 hPa 0,0 l/m 0 min 0 min 0,8 UV-I 192 W/m 18,0 km/h (3 Bft)
23.04.2013 14:38 13,9 C 14,6 C 79 % 1021,1 hPa 0,0 l/m 0 min 0 min 0,7 UV-I 171 W/m 7,7 km/h (2 Bft)
23.04.2013 14:40 13,9 C 14,0 C 79 % 1021,0 hPa 0,0 l/m 0 min 0 min 1,3 UV-I 241 W/m 12,9 km/h (3 Bft)
23.04.2013 14:42 14,0 C 14,6 C 79 % 1021,0 hPa 0,0 l/m 0 min 0 min 1,8 UV-I 288 W/m 10,3 km/h (2 Bft)
23.04.2013 14:44 14,0 C 14,6 C 80 % 1021,0 hPa 0,0 l/m 0 min 0 min 1,6 UV-I 267 W/m 10,3 km/h (2 Bft)
23.04.2013 14:46 14,1 C 14,6 C 79 % 1021,0 hPa 0,0 l/m 0 min 0 min 1,0 UV-I 213 W/m 10,3 km/h (2 Bft)
23.04.2013 14:48 14,1 C 14,6 C 79 % 1021,2 hPa 0,0 l/m 0 min 0 min 0,9 UV-I 230 W/m 20,6 km/h (4 Bft)
23.04.2013 14:50 14,1 C 14,6 C 79 % 1021,1 hPa 0,0 l/m 0 min 0 min 1,6 UV-I 276 W/m 7,7 km/h (2 Bft)
23.04.2013 14:52 14,1 C 15,1 C 79 % 1021,1 hPa 0,0 l/m 0 min 0 min 1,2 UV-I 232 W/m 7,7 km/h (2 Bft)
23.04.2013 14:54 14,1 C 14,6 C 79 % 1021,1 hPa 0,0 l/m 0 min 0 min 1,0 UV-I 213 W/m 12,9 km/h (3 Bft)
23.04.2013 14:56 14,2 C 14,6 C 79 % 1021,1 hPa 0,0 l/m 0 min 0 min 0,7 UV-I 171 W/m 18,0 km/h (3 Bft)
23.04.2013 14:58 14,2 C 14,6 C 79 % 1021,1 hPa 0,0 l/m 0 min 0 min 0,0 UV-I 91 W/m 15,4 km/h (3 Bft)
23.04.2013 15:00 14,2 C 14,0 C 79 % 1021,2 hPa 0,0 l/m 0 min 0 min 0,0 UV-I 70 W/m 7,7 km/h (2 Bft)
23.04.2013 15:02 14,2 C 13,4 C 79 % 1021,2 hPa 0,0 l/m 0 min 0 min 0,0 UV-I 70 W/m 10,3 km/h (2 Bft)
23.04.2013 15:04 14,2 C 13,4 C 78 % 1021,2 hPa 0,0 l/m 0 min 0 min 0,0 UV-I 76 W/m 12,9 km/h (3 Bft)
23.04.2013 15:06 14,1 C 13,4 C 79 % 1021,2 hPa 0,0 l/m 0 min 0 min 0,0 UV-I 67 W/m 15,4 km/h (3 Bft)
23.04.2013 15:08 14,1 C 13,4 C 79 % 1021,2 hPa 0,0 l/m 0 min 0 min 0,0 UV-I 65 W/m 2,6 km/h (1 Bft)
23.04.2013 15:10 14,1 C 13,4 C 78 % 1021,3 hPa 0,0 l/m 0 min 0 min 0,0 UV-I 74 W/m 0,0 km/h (0 Bft)
23.04.2013 15:12 14,0 C 13,4 C 78 % 1021,2 hPa 0,0 l/m 0 min 0 min 0,0 UV-I 81 W/m 12,9 km/h (3 Bft)
23.04.2013 15:14 13,9 C 12,9 C 78 % 1021,3 hPa 0,0 l/m 0 min 0 min 0,0 UV-I 86 W/m 15,4 km/h (3 Bft)
23.04.2013 15:16 13,9 C 13,4 C 78 % 1021,2 hPa 0,0 l/m 0 min 0 min 0,0 UV-I 98 W/m 5,1 km/h (1 Bft)
23.04.2013 15:18 13,8 C 13,4 C 79 % 1021,2 hPa 0,0 l/m 0 min 0 min 0,0 UV-I 81 W/m 7,7 km/h (2 Bft)
23.04.2013 15:20 13,8 C 12,9 C 78 % 1021,2 hPa 0,0 l/m 0 min 0 min 0,0 UV-I 63 W/m 12,9 km/h (3 Bft)
23.04.2013 15:22 13,8 C 12,9 C 79 % 1021,2 hPa 0,0 l/m 0 min 0 min 0,0 UV-I 54 W/m 12,9 km/h (3 Bft)
23.04.2013 15:24 13,7 C 12,9 C 79 % 1021,2 hPa 0,0 l/m 0 min 0 min 0,0 UV-I 51 W/m 10,3 km/h (2 Bft)
23.04.2013 15:26 13,7 C 12,9 C 79 % 1021,2 hPa 0,0 l/m 0 min 0 min 0,0 UV-I 47 W/m 5,1 km/h (1 Bft)
23.04.2013 15:28 13,7 C 12,9 C 79 % 1021,2 hPa 0,0 l/m 0 min 0 min 0,0 UV-I 49 W/m 10,3 km/h (2 Bft)
23.04.2013 15:30 13,7 C 12,9 C 79 % 1021,3 hPa 0,0 l/m 0 min 0 min 0,0 UV-I 77 W/m 5,1 km/h (1 Bft)
23.04.2013 15:32 13,6 C 12,9 C 79 % 1021,3 hPa 0,0 l/m 0 min 0 min 0,0 UV-I 74 W/m 10,3 km/h (2 Bft)
23.04.2013 15:34 13,6 C 12,9 C 80 % 1021,3 hPa 0,0 l/m 0 min 0 min 0,0 UV-I 76 W/m 18,0 km/h (3 Bft)
23.04.2013 15:36 13,6 C 12,9 C 80 % 1021,4 hPa 0,0 l/m 0 min 0 min 0,0 UV-I 95 W/m 15,4 km/h (3 Bft)
23.04.2013 15:38 13,6 C 12,9 C 80 % 1021,3 hPa 0,0 l/m 0 min 0 min 0,0 UV-I 88 W/m 10,3 km/h (2 Bft)
23.04.2013 15:40 13,5 C 12,9 C 80 % 1021,3 hPa 0,0 l/m 0 min 0 min 0,0 UV-I 77 W/m 7,7 km/h (2 Bft)
23.04.2013 15:42 13,5 C 12,9 C 80 % 1021,3 hPa 0,0 l/m 0 min 0 min 0,0 UV-I 107 W/m 12,9 km/h (3 Bft)
23.04.2013 15:44 13,5 C 12,9 C 80 % 1021,4 hPa 0,0 l/m 0 min 0 min 0,0 UV-I 134 W/m 15,4 km/h (3 Bft)
23.04.2013 15:46 13,5 C 13,4 C 81 % 1021,4 hPa 0,0 l/m 0 min 0 min 0,0 UV-I 127 W/m 5,1 km/h (1 Bft)
23.04.2013 15:48 13,6 C 13,4 C 81 % 1021,4 hPa 0,0 l/m 0 min 0 min 0,0 UV-I 95 W/m 0,0 km/h (0 Bft)
23.04.2013 15:50 13,6 C 13,4 C 81 % 1021,4 hPa 0,0 l/m 0 min 0 min 0,0 UV-I 84 W/m 7,7 km/h (2 Bft)
23.04.2013 15:52 13,6 C 13,4 C 80 % 1021,5 hPa 0,0 l/m 0 min 0 min 0,0 UV-I 79 W/m 15,4 km/h (3 Bft)
23.04.2013 15:54 13,6 C 12,9 C 80 % 1021,5 hPa 0,0 l/m 0 min 0 min 0,0 UV-I 84 W/m 18,0 km/h (3 Bft)
23.04.2013 15:56 13,5 C 12,9 C 80 % 1021,5 hPa 0,0 l/m 0 min 0 min 0,0 UV-I 84 W/m 2,6 km/h (1 Bft)
23.04.2013 15:58 13,5 C 12,9 C 80 % 1021,5 hPa 0,0 l/m 0 min 0 min 0,0 UV-I 93 W/m 12,9 km/h (3 Bft)
23.04.2013 16:00 13,5 C 12,9 C 80 % 1021,5 hPa 0,0 l/m 0 min 0 min 0,0 UV-I 100 W/m 10,3 km/h (2 Bft)
23.04.2013 16:02 13,5 C 13,4 C 80 % 1021,5 hPa 0,0 l/m 0 min 0 min 0,0 UV-I 102 W/m 12,9 km/h (3 Bft)
23.04.2013 16:04 13,6 C 13,4 C 80 % 1021,5 hPa 0,0 l/m 0 min 0 min 0,0 UV-I 107 W/m 7,7 km/h (2 Bft)
23.04.2013 16:06 13,6 C 13,4 C 80 % 1021,5 hPa 0,0 l/m 0 min 0 min 0,0 UV-I 123 W/m 2,6 km/h (1 Bft)
23.04.2013 16:08 13,6 C 13,4 C 80 % 1021,5 hPa 0,0 l/m 0 min 0 min 0,0 UV-I 135 W/m 7,7 km/h (2 Bft)
23.04.2013 16:10 13,6 C 13,4 C 80 % 1021,5 hPa 0,0 l/m 0 min 0 min 0,0 UV-I 151 W/m 15,4 km/h (3 Bft)
23.04.2013 16:12 13,6 C 13,4 C 80 % 1021,5 hPa 0,0 l/m 0 min 0 min 0,0 UV-I 156 W/m 7,7 km/h (2 Bft)
23.04.2013 16:14 13,6 C 14,0 C 80 % 1021,5 hPa 0,0 l/m 0 min 0 min 0,0 UV-I 165 W/m 0,0 km/h (0 Bft)
23.04.2013 16:16 13,7 C 14,0 C 80 % 1021,5 hPa 0,0 l/m 0 min 0 min 0,0 UV-I 151 W/m 7,7 km/h (2 Bft)
23.04.2013 16:18 13,7 C 14,0 C 80 % 1021,5 hPa 0,0 l/m 0 min 0 min 0,0 UV-I 144 W/m 10,3 km/h (2 Bft)
23.04.2013 16:20 13,8 C 14,0 C 79 % 1021,5 hPa 0,0 l/m 0 min 0 min 0,0 UV-I 139 W/m 10,3 km/h (2 Bft)
23.04.2013 16:22 13,8 C 13,4 C 79 % 1021,4 hPa 0,0 l/m 0 min 0 min 0,0 UV-I 142 W/m 10,3 km/h (2 Bft)
23.04.2013 16:24 13,8 C 14,0 C 79 % 1021,4 hPa 0,0 l/m 0 min 0 min 0,0 UV-I 146 W/m 5,1 km/h (1 Bft)
23.04.2013 16:26 13,8 C 14,0 C 79 % 1021,4 hPa 0,0 l/m 0 min 0 min 0,0 UV-I 146 W/m 12,9 km/h (3 Bft)
23.04.2013 16:28 13,8 C 14,0 C 79 % 1021,4 hPa 0,0 l/m 0 min 0 min 0,0 UV-I 151 W/m 0,0 km/h (0 Bft)
23.04.2013 16:30 13,9 C 14,0 C 79 % 1021,3 hPa 0,0 l/m 0 min 0 min 0,0 UV-I 162 W/m 18,0 km/h (3 Bft)
23.04.2013 16:32 13,9 C 14,0 C 79 % 1021,4 hPa 0,0 l/m 0 min 0 min 0,0 UV-I 162 W/m 5,1 km/h (1 Bft)
23.04.2013 16:34 13,9 C 14,0 C 78 % 1021,3 hPa 0,0 l/m 0 min 0 min 0,0 UV-I 174 W/m 10,3 km/h (2 Bft)
23.04.2013 16:36 13,9 C 14,0 C 78 % 1021,3 hPa 0,0 l/m 0 min 0 min 0,6 UV-I 200 W/m 10,3 km/h (2 Bft)
23.04.2013 16:38 13,9 C 14,0 C 77 % 1021,4 hPa 0,0 l/m 0 min 0 min 0,7 UV-I 225 W/m 7,7 km/h (2 Bft)
23.04.2013 16:40 14,0 C 14,6 C 77 % 1021,3 hPa 0,0 l/m 0 min 0 min 0,8 UV-I 250 W/m 10,3 km/h (2 Bft)
23.04.2013 16:42 14,1 C 15,1 C 78 % 1021,3 hPa 0,0 l/m 0 min 0 min 1,0 UV-I 278 W/m 5,1 km/h (1 Bft)
23.04.2013 16:44 14,2 C 15,1 C 78 % 1021,3 hPa 0,0 l/m 0 min 0 min 1,1 UV-I 278 W/m 10,3 km/h (2 Bft)
23.04.2013 16:46 14,3 C 15,1 C 78 % 1021,3 hPa 0,0 l/m 0 min 0 min 1,1 UV-I 250 W/m 10,3 km/h (2 Bft)
23.04.2013 16:48 14,3 C 14,6 C 77 % 1021,3 hPa 0,0 l/m 0 min 0 min 1,4 UV-I 251 W/m 7,7 km/h (2 Bft)
23.04.2013 16:50 14,4 C 15,1 C 77 % 1021,2 hPa 0,0 l/m 2 min 0 min 1,7 UV-I 322 W/m 10,3 km/h (2 Bft)
23.04.2013 16:52 14,6 C 15,1 C 77 % 1021,3 hPa 0,0 l/m 2 min 0 min 1,4 UV-I 512 W/m 10,3 km/h (2 Bft)
23.04.2013 16:54 14,7 C 15,1 C 76 % 1021,3 hPa 0,0 l/m 2 min 0 min 1,6 UV-I 512 W/m 15,4 km/h (3 Bft)
23.04.2013 16:56 14,9 C 15,1 C 74 % 1021,3 hPa 0,0 l/m 2 min 0 min 1,6 UV-I 547 W/m 23,2 km/h (4 Bft)
23.04.2013 16:58 15,0 C 15,1 C 74 % 1021,2 hPa 0,0 l/m 2 min 0 min 1,6 UV-I 557 W/m 12,9 km/h (3 Bft)
23.04.2013 17:00 15,0 C 15,1 C 74 % 1021,1 hPa 0,0 l/m 2 min 0 min 1,6 UV-I 536 W/m 5,1 km/h (1 Bft)
23.04.2013 17:02 15,1 C 15,7 C 73 % 1021,2 hPa 0,0 l/m 2 min 0 min 1,5 UV-I 529 W/m 12,9 km/h (3 Bft)
23.04.2013 17:04 15,3 C 15,7 C 73 % 1021,2 hPa 0,0 l/m 2 min 0 min 1,4 UV-I 475 W/m 7,7 km/h (2 Bft)
23.04.2013 17:06 15,4 C 15,7 C 73 % 1021,2 hPa 0,0 l/m 2 min 0 min 1,4 UV-I 417 W/m 12,9 km/h (3 Bft)
23.04.2013 17:08 15,6 C 15,1 C 72 % 1021,2 hPa 0,0 l/m 2 min 0 min 1,0 UV-I 417 W/m 7,7 km/h (2 Bft)
23.04.2013 17:10 15,6 C 15,1 C 71 % 1021,2 hPa 0,0 l/m 0 min 0 min 1,0 UV-I 248 W/m 20,6 km/h (4 Bft)
23.04.2013 17:12 15,7 C 15,1 C 70 % 1021,1 hPa 0,0 l/m 2 min 0 min 1,4 UV-I 510 W/m 10,3 km/h (2 Bft)
23.04.2013 17:14 15,7 C 15,7 C 69 % 1021,1 hPa 0,0 l/m 2 min 0 min 1,4 UV-I 557 W/m 18,0 km/h (3 Bft)
23.04.2013 17:16 15,8 C 15,7 C 70 % 1021,1 hPa 0,0 l/m 0 min 0 min 0,9 UV-I 229 W/m 12,9 km/h (3 Bft)
23.04.2013 17:18 15,8 C 15,7 C 70 % 1021,1 hPa 0,0 l/m 0 min 0 min 1,2 UV-I 265 W/m 7,7 km/h (2 Bft)
23.04.2013 17:20 15,8 C 15,7 C 70 % 1021,0 hPa 0,0 l/m 2 min 0 min 1,3 UV-I 592 W/m 10,3 km/h (2 Bft)
23.04.2013 17:22 15,9 C 16,2 C 70 % 1021,0 hPa 0,0 l/m 2 min 0 min 0,7 UV-I 592 W/m 10,3 km/h (2 Bft)
23.04.2013 17:24 16,0 C 15,7 C 69 % 1021,0 hPa 0,0 l/m 0 min 0 min 0,0 UV-I 250 W/m 18,0 km/h (3 Bft)
23.04.2013 17:26 16,1 C 15,7 C 69 % 1021,0 hPa 0,0 l/m 0 min 0 min 0,8 UV-I 250 W/m 12,9 km/h (3 Bft)
23.04.2013 17:28 16,1 C 15,7 C 68 % 1021,1 hPa 0,0 l/m 2 min 0 min 0,7 UV-I 359 W/m 5,1 km/h (1 Bft)
23.04.2013 17:30 16,2 C 15,7 C 68 % 1021,1 hPa 0,0 l/m 0 min 0 min 0,0 UV-I 211 W/m 7,7 km/h (2 Bft)
23.04.2013 17:32 16,2 C 15,7 C 68 % 1021,1 hPa 0,0 l/m 0 min 0 min 0,5 UV-I 197 W/m 7,7 km/h (2 Bft)
23.04.2013 17:34 16,1 C 15,7 C 68 % 1021,1 hPa 0,0 l/m 0 min 0 min 0,0 UV-I 190 W/m 7,7 km/h (2 Bft)
23.04.2013 17:36 16,1 C 15,7 C 68 % 1021,1 hPa 0,0 l/m 0 min 0 min 0,0 UV-I 195 W/m 5,1 km/h (1 Bft)
23.04.2013 17:38 16,1 C 15,7 C 68 % 1021,1 hPa 0,0 l/m 0 min 0 min 0,0 UV-I 234 W/m 2,6 km/h (1 Bft)
23.04.2013 17:40 16,1 C 15,7 C 69 % 1021,2 hPa 0,0 l/m 0 min 0 min 0,0 UV-I 190 W/m 0,0 km/h (0 Bft)
23.04.2013 17:42 16,1 C 15,7 C 68 % 1021,2 hPa 0,0 l/m 0 min 0 min 0,0 UV-I 199 W/m 7,7 km/h (2 Bft)
23.04.2013 17:44 16,1 C 15,7 C 68 % 1021,1 hPa 0,0 l/m 0 min 0 min 0,0 UV-I 163 W/m 2,6 km/h (1 Bft)
23.04.2013 17:46 16,0 C 15,1 C 67 % 1021,1 hPa 0,0 l/m 0 min 0 min 0,0 UV-I 153 W/m 2,6 km/h (1 Bft)
23.04.2013 17:48 15,9 C 15,1 C 67 % 1021,1 hPa 0,0 l/m 0 min 0 min 0,0 UV-I 132 W/m 10,3 km/h (2 Bft)
23.04.2013 17:50 15,9 C 15,1 C 68 % 1021,0 hPa 0,0 l/m 0 min 0 min 0,0 UV-I 179 W/m 7,7 km/h (2 Bft)
23.04.2013 17:52 15,9 C 15,1 C 68 % 1021,1 hPa 0,0 l/m 0 min 0 min 0,0 UV-I 176 W/m 0,0 km/h (0 Bft)
23.04.2013 17:54 15,8 C 15,1 C 69 % 1021,0 hPa 0,0 l/m 0 min 0 min 0,0 UV-I 176 W/m 2,6 km/h (1 Bft)
23.04.2013 17:56 15,8 C 15,7 C 69 % 1021,1 hPa 0,0 l/m 0 min 0 min 0,0 UV-I 158 W/m 0,0 km/h (0 Bft)
23.04.2013 17:58 15,8 C 15,1 C 69 % 1021,2 hPa 0,0 l/m 0 min 0 min 0,0 UV-I 134 W/m 10,3 km/h (2 Bft)
23.04.2013 18:00 15,8 C 15,1 C 68 % 1021,2 hPa 0,0 l/m 0 min 0 min 0,0 UV-I 128 W/m 0,0 km/h (0 Bft)
23.04.2013 18:02 15,8 C 15,1 C 68 % 1021,3 hPa 0,0 l/m 0 min 0 min 0,0 UV-I 141 W/m 5,1 km/h (1 Bft)
23.04.2013 18:04 15,7 C 15,1 C 69 % 1021,3 hPa 0,0 l/m 0 min 0 min 0,0 UV-I 142 W/m 12,9 km/h (3 Bft)
23.04.2013 18:06 15,7 C 14,6 C 70 % 1021,2 hPa 0,0 l/m 0 min 0 min 0,0 UV-I 141 W/m 15,4 km/h (3 Bft)
23.04.2013 18:08 15,7 C 14,6 C 70 % 1021,3 hPa 0,0 l/m 0 min 0 min 0,0 UV-I 202 W/m 10,3 km/h (2 Bft)
23.04.2013 18:10 15,6 C 15,1 C 70 % 1021,2 hPa 0,0 l/m 2 min 0 min 0,0 UV-I 332 W/m 0,0 km/h (0 Bft)
23.04.2013 18:12 15,6 C 15,1 C 70 % 1021,2 hPa 0,0 l/m 2 min 0 min 0,0 UV-I 223 W/m 0,0 km/h (0 Bft)
23.04.2013 18:14 15,6 C 15,7 C 70 % 1021,2 hPa 0,0 l/m 2 min 0 min 0,0 UV-I 244 W/m 7,7 km/h (2 Bft)
23.04.2013 18:16 15,7 C 15,7 C 70 % 1021,2 hPa 0,0 l/m 2 min 0 min 0,0 UV-I 218 W/m 12,9 km/h (3 Bft)
23.04.2013 18:18 15,7 C 15,7 C 69 % 1021,3 hPa 0,0 l/m 2 min 0 min 0,0 UV-I 202 W/m 5,1 km/h (1 Bft)
23.04.2013 18:20 15,7 C 15,7 C 69 % 1021,3 hPa 0,0 l/m 0 min 0 min 0,0 UV-I 192 W/m 10,3 km/h (2 Bft)
23.04.2013 18:22 15,7 C 15,7 C 68 % 1021,3 hPa 0,0 l/m 0 min 0 min 0,0 UV-I 186 W/m 10,3 km/h (2 Bft)
23.04.2013 18:24 15,7 C 15,7 C 69 % 1021,3 hPa 0,0 l/m 0 min 0 min 0,0 UV-I 181 W/m 18,0 km/h (3 Bft)
23.04.2013 18:26 15,7 C 15,1 C 69 % 1021,3 hPa 0,0 l/m 0 min 0 min 0,0 UV-I 127 W/m 10,3 km/h (2 Bft)
23.04.2013 18:28 15,7 C 15,1 C 68 % 1021,3 hPa 0,0 l/m 0 min 0 min 0,0 UV-I 120 W/m 5,1 km/h (1 Bft)
23.04.2013 18:30 15,7 C 15,1 C 68 % 1021,2 hPa 0,0 l/m 0 min 0 min 0,0 UV-I 132 W/m 10,3 km/h (2 Bft)
23.04.2013 18:32 15,7 C 15,1 C 69 % 1021,2 hPa 0,0 l/m 0 min 0 min 0,0 UV-I 123 W/m 10,3 km/h (2 Bft)
23.04.2013 18:34 15,7 C 15,1 C 69 % 1021,2 hPa 0,0 l/m 0 min 0 min 0,0 UV-I 127 W/m 12,9 km/h (3 Bft)
23.04.2013 18:36 15,7 C 15,1 C 69 % 1021,2 hPa 0,0 l/m 0 min 0 min 0,0 UV-I 128 W/m 5,1 km/h (1 Bft)
23.04.2013 18:38 15,7 C 15,1 C 69 % 1021,2 hPa 0,0 l/m 0 min 0 min 0,0 UV-I 128 W/m 5,1 km/h (1 Bft)
23.04.2013 18:40 15,7 C 15,1 C 69 % 1021,2 hPa 0,0 l/m 0 min 0 min 0,0 UV-I 135 W/m 2,6 km/h (1 Bft)
23.04.2013 18:42 15,7 C 15,1 C 68 % 1021,2 hPa 0,0 l/m 0 min 0 min 0,0 UV-I 113 W/m 2,6 km/h (1 Bft)
23.04.2013 18:44 15,7 C 15,1 C 69 % 1021,2 hPa 0,0 l/m 0 min 0 min 0,0 UV-I 114 W/m 2,6 km/h (1 Bft)
23.04.2013 18:46 15,7 C 15,1 C 69 % 1021,2 hPa 0,0 l/m 0 min 0 min 0,0 UV-I 139 W/m 7,7 km/h (2 Bft)
23.04.2013 18:48 15,7 C 15,1 C 69 % 1021,2 hPa 0,0 l/m 0 min 0 min 0,0 UV-I 142 W/m 2,6 km/h (1 Bft)
23.04.2013 18:50 15,7 C 15,1 C 68 % 1021,3 hPa 0,0 l/m 0 min 0 min 0,0 UV-I 132 W/m 10,3 km/h (2 Bft)
23.04.2013 18:52 15,7 C 15,1 C 68 % 1021,2 hPa 0,0 l/m 0 min 0 min 0,0 UV-I 130 W/m 2,6 km/h (1 Bft)
23.04.2013 18:54 15,7 C 15,1 C 68 % 1021,3 hPa 0,0 l/m 0 min 0 min 0,0 UV-I 116 W/m 0,0 km/h (0 Bft)
23.04.2013 18:56 15,6 C 15,1 C 68 % 1021,2 hPa 0,0 l/m 0 min 0 min 0,0 UV-I 104 W/m 10,3 km/h (2 Bft)
23.04.2013 18:58 15,6 C 14,6 C 68 % 1021,2 hPa 0,0 l/m 0 min 0 min 0,0 UV-I 111 W/m 7,7 km/h (2 Bft)
23.04.2013 19:00 15,6 C 14,6 C 68 % 1021,2 hPa 0,0 l/m 0 min 0 min 0,0 UV-I 102 W/m 7,7 km/h (2 Bft)
23.04.2013 19:02 15,6 C 14,6 C 69 % 1021,3 hPa 0,0 l/m 0 min 0 min 0,0 UV-I 91 W/m 2,6 km/h (1 Bft)
23.04.2013 19:04 15,6 C 14,6 C 69 % 1021,3 hPa 0,0 l/m 0 min 0 min 0,0 UV-I 84 W/m 2,6 km/h (1 Bft)
23.04.2013 19:06 15,6 C 14,6 C 69 % 1021,2 hPa 0,0 l/m 0 min 0 min 0,0 UV-I 63 W/m 5,1 km/h (1 Bft)
23.04.2013 19:08 15,5 C 14,6 C 69 % 1021,3 hPa 0,0 l/m 0 min 0 min 0,0 UV-I 56 W/m 7,7 km/h (2 Bft)
23.04.2013 19:10 15,5 C 14,6 C 69 % 1021,3 hPa 0,0 l/m 0 min 0 min 0,0 UV-I 49 W/m 7,7 km/h (2 Bft)
23.04.2013 19:12 15,4 C 14,0 C 69 % 1021,3 hPa 0,0 l/m 0 min 0 min 0,0 UV-I 39 W/m 0,0 km/h (0 Bft)
23.04.2013 19:14 15,4 C 14,0 C 70 % 1021,3 hPa 0,0 l/m 0 min 0 min 0,0 UV-I 33 W/m 2,6 km/h (1 Bft)
23.04.2013 19:16 15,3 C 14,0 C 69 % 1021,4 hPa 0,0 l/m 0 min 0 min 0,0 UV-I 33 W/m 10,3 km/h (2 Bft)
23.04.2013 19:18 15,3 C 13,4 C 69 % 1021,3 hPa 0,0 l/m 0 min 0 min 0,0 UV-I 37 W/m 7,7 km/h (2 Bft)
23.04.2013 19:20 15,2 C 13,4 C 69 % 1021,4 hPa 0,0 l/m 0 min 0 min 0,0 UV-I 35 W/m 5,1 km/h (1 Bft)
23.04.2013 19:22 15,2 C 13,4 C 69 % 1021,4 hPa 0,0 l/m 0 min 0 min 0,0 UV-I 35 W/m 10,3 km/h (2 Bft)
23.04.2013 19:24 15,1 C 13,4 C 69 % 1021,4 hPa 0,0 l/m 0 min 0 min 0,0 UV-I 40 W/m 15,4 km/h (3 Bft)
23.04.2013 19:26 15,0 C 13,4 C 68 % 1021,5 hPa 0,0 l/m 0 min 0 min 0,0 UV-I 42 W/m 7,7 km/h (2 Bft)
23.04.2013 19:28 15,0 C 13,4 C 68 % 1021,5 hPa 0,0 l/m 0 min 0 min 0,0 UV-I 39 W/m 5,1 km/h (1 Bft)
23.04.2013 19:30 15,0 C 13,4 C 69 % 1021,5 hPa 0,0 l/m 0 min 0 min 0,0 UV-I 47 W/m 7,7 km/h (2 Bft)
23.04.2013 19:32 15,0 C 13,4 C 69 % 1021,4 hPa 0,0 l/m 0 min 0 min 0,0 UV-I 46 W/m 0,0 km/h (0 Bft)
23.04.2013 19:34 15,0 C 13,4 C 70 % 1021,4 hPa 0,0 l/m 0 min 0 min 0,0 UV-I 46 W/m 0,0 km/h (0 Bft)
23.04.2013 19:36 15,0 C 13,4 C 70 % 1021,3 hPa 0,0 l/m 0 min 0 min 0,0 UV-I 46 W/m 0,0 km/h (0 Bft)
23.04.2013 19:38 15,0 C 13,4 C 70 % 1021,4 hPa 0,0 l/m 0 min 0 min 0,0 UV-I 44 W/m 0,0 km/h (0 Bft)
23.04.2013 19:40 15,0 C 13,4 C 70 % 1021,4 hPa 0,0 l/m 0 min 0 min 0,0 UV-I 39 W/m 0,0 km/h (0 Bft)
23.04.2013 19:42 15,0 C 12,9 C 69 % 1021,5 hPa 0,0 l/m 0 min 0 min 0,0 UV-I 35 W/m 2,6 km/h (1 Bft)
23.04.2013 19:44 14,9 C 12,9 C 70 % 1021,5 hPa 0,0 l/m 0 min 0 min 0,0 UV-I 33 W/m 0,0 km/h (0 Bft)
23.04.2013 19:46 14,9 C 12,9 C 70 % 1021,6 hPa 0,0 l/m 0 min 0 min 0,0 UV-I 33 W/m 0,0 km/h (0 Bft)
23.04.2013 19:48 14,8 C 12,9 C 70 % 1021,5 hPa 0,0 l/m 0 min 0 min 0,0 UV-I 32 W/m 2,6 km/h (1 Bft)
23.04.2013 19:50 14,8 C 12,9 C 70 % 1021,4 hPa 0,0 l/m 0 min 0 min 0,0 UV-I 32 W/m 0,0 km/h (0 Bft)
23.04.2013 19:52 14,8 C 12,9 C 70 % 1021,5 hPa 0,0 l/m 0 min 0 min 0,0 UV-I 30 W/m 0,0 km/h (0 Bft)
23.04.2013 19:54 14,8 C 12,9 C 70 % 1021,5 hPa 0,0 l/m 0 min 0 min 0,0 UV-I 32 W/m 0,0 km/h (0 Bft)
23.04.2013 19:56 14,7 C 12,9 C 70 % 1021,6 hPa 0,0 l/m 0 min 0 min 0,0 UV-I 32 W/m 0,0 km/h (0 Bft)
23.04.2013 19:58 14,7 C 12,9 C 70 % 1021,6 hPa 0,0 l/m 0 min 0 min 0,0 UV-I 28 W/m 0,0 km/h (0 Bft)
23.04.2013 20:00 14,7 C 12,9 C 70 % 1021,7 hPa 0,0 l/m 0 min 0 min 0,0 UV-I 25 W/m 0,0 km/h (0 Bft)
23.04.2013 20:02 14,7 C 12,3 C 70 % 1021,6 hPa 0,0 l/m 0 min 0 min 0,0 UV-I 21 W/m 0,0 km/h (0 Bft)
23.04.2013 20:04 14,7 C 12,3 C 70 % 1021,6 hPa 0,0 l/m 0 min 0 min 0,0 UV-I 19 W/m 0,0 km/h (0 Bft)
23.04.2013 20:06 14,6 C 12,3 C 70 % 1021,6 hPa 0,0 l/m 0 min 0 min 0,0 UV-I 18 W/m 0,0 km/h (0 Bft)
23.04.2013 20:08 14,6 C 12,3 C 70 % 1021,8 hPa 0,0 l/m 0 min 0 min 0,0 UV-I 18 W/m 2,6 km/h (1 Bft)
23.04.2013 20:10 14,6 C 12,3 C 70 % 1021,9 hPa 0,0 l/m 0 min 0 min 0,0 UV-I 16 W/m 0,0 km/h (0 Bft)
23.04.2013 20:12 14,6 C 11,8 C 70 % 1021,8 hPa 0,0 l/m 0 min 0 min 0,0 UV-I 14 W/m 2,6 km/h (1 Bft)
23.04.2013 20:14 14,5 C 11,8 C 70 % 1021,9 hPa 0,0 l/m 0 min 0 min 0,0 UV-I 14 W/m 0,0 km/h (0 Bft)
23.04.2013 20:16 14,5 C 11,8 C 70 % 1021,9 hPa 0,0 l/m 0 min 0 min 0,0 UV-I 14 W/m 0,0 km/h (0 Bft)
23.04.2013 20:18 14,4 C 11,8 C 70 % 1021,9 hPa 0,0 l/m 0 min 0 min 0,0 UV-I 14 W/m 0,0 km/h (0 Bft)
23.04.2013 20:20 14,4 C 11,8 C 70 % 1021,9 hPa 0,0 l/m 0 min 0 min 0,0 UV-I 14 W/m 0,0 km/h (0 Bft)
23.04.2013 20:22 14,4 C 11,8 C 70 % 1021,9 hPa 0,0 l/m 0 min 0 min 0,0 UV-I 14 W/m 0,0 km/h (0 Bft)
23.04.2013 20:24 14,3 C 11,8 C 71 % 1022,0 hPa 0,0 l/m 0 min 0 min 0,0 UV-I 12 W/m 0,0 km/h (0 Bft)
23.04.2013 20:26 14,3 C 11,2 C 71 % 1021,9 hPa 0,0 l/m 0 min 0 min 0,0 UV-I 12 W/m 0,0 km/h (0 Bft)
23.04.2013 20:28 14,3 C 11,2 C 71 % 1022,0 hPa 0,0 l/m 0 min 0 min 0,0 UV-I 12 W/m 0,0 km/h (0 Bft)
23.04.2013 20:30 14,3 C 11,2 C 71 % 1022,0 hPa 0,0 l/m 0 min 0 min 0,0 UV-I 11 W/m 0,0 km/h (0 Bft)
23.04.2013 20:32 14,2 C 11,2 C 71 % 1022,0 hPa 0,0 l/m 0 min 0 min 0,0 UV-I 11 W/m 0,0 km/h (0 Bft)
23.04.2013 20:34 14,2 C 11,2 C 71 % 1022,0 hPa 0,0 l/m 0 min 0 min 0,0 UV-I 9 W/m 0,0 km/h (0 Bft)
23.04.2013 20:36 14,2 C 11,2 C 71 % 1022,0 hPa 0,0 l/m 0 min 0 min 0,0 UV-I 7 W/m 0,0 km/h (0 Bft)
23.04.2013 20:38 14,1 C 11,2 C 71 % 1022,0 hPa 0,0 l/m 0 min 0 min 0,0 UV-I 5 W/m 0,0 km/h (0 Bft)
23.04.2013 20:40 14,1 C 11,2 C 71 % 1022,1 hPa 0,0 l/m 0 min 0 min 0,0 UV-I 5 W/m 0,0 km/h (0 Bft)
23.04.2013 20:42 14,1 C 10,7 C 71 % 1022,1 hPa 0,0 l/m 0 min 0 min 0,0 UV-I 0 W/m 0,0 km/h (0 Bft)
23.04.2013 20:44 14,0 C 10,7 C 72 % 1022,2 hPa 0,0 l/m 0 min 0 min 0,0 UV-I 0 W/m 0,0 km/h (0 Bft)
23.04.2013 20:46 13,9 C 10,7 C 72 % 1022,1 hPa 0,0 l/m 0 min 0 min 0,0 UV-I 0 W/m 0,0 km/h (0 Bft)
23.04.2013 20:48 13,9 C 10,7 C 72 % 1022,2 hPa 0,0 l/m 0 min 0 min 0,0 UV-I 0 W/m 0,0 km/h (0 Bft)
23.04.2013 20:50 13,9 C 10,7 C 72 % 1022,2 hPa 0,0 l/m 0 min 0 min 0,0 UV-I 0 W/m 0,0 km/h (0 Bft)
23.04.2013 20:52 13,8 C 10,7 C 72 % 1022,1 hPa 0,0 l/m 0 min 0 min 0,0 UV-I 0 W/m 0,0 km/h (0 Bft)
23.04.2013 20:54 13,8 C 11,2 C 72 % 1022,2 hPa 0,0 l/m 0 min 0 min 0,0 UV-I 0 W/m 0,0 km/h (0 Bft)
23.04.2013 20:56 13,8 C 11,2 C 73 % 1022,3 hPa 0,0 l/m 0 min 0 min 0,0 UV-I 0 W/m 0,0 km/h (0 Bft)
23.04.2013 20:58 13,7 C 11,2 C 73 % 1022,3 hPa 0,0 l/m 0 min 0 min 0,0 UV-I 0 W/m 7,7 km/h (2 Bft)
23.04.2013 21:00 13,7 C 11,8 C 74 % 1022,4 hPa 0,0 l/m 0 min 0 min 0,0 UV-I 0 W/m 2,6 km/h (1 Bft)
23.04.2013 21:02 13,6 C 11,8 C 74 % 1022,3 hPa 0,0 l/m 0 min 0 min 0,0 UV-I 0 W/m 0,0 km/h (0 Bft)
23.04.2013 21:04 13,6 C 11,8 C 75 % 1022,4 hPa 0,0 l/m 0 min 0 min 0,0 UV-I 0 W/m 0,0 km/h (0 Bft)
23.04.2013 21:06 13,6 C 11,8 C 76 % 1022,4 hPa 0,0 l/m 0 min 0 min 0,0 UV-I 0 W/m 0,0 km/h (0 Bft)
23.04.2013 21:08 13,6 C 11,8 C 76 % 1022,5 hPa 0,0 l/m 0 min 0 min 0,0 UV-I 0 W/m 0,0 km/h (0 Bft)
23.04.2013 21:10 13,6 C 11,2 C 76 % 1022,6 hPa 0,0 l/m 0 min 0 min 0,0 UV-I 0 W/m 0,0 km/h (0 Bft)
23.04.2013 21:12 13,5 C 11,2 C 76 % 1022,6 hPa 0,0 l/m 0 min 0 min 0,0 UV-I 0 W/m 0,0 km/h (0 Bft)
23.04.2013 21:14 13,5 C 11,2 C 76 % 1022,6 hPa 0,0 l/m 0 min 0 min 0,0 UV-I 0 W/m 0,0 km/h (0 Bft)
23.04.2013 21:16 13,4 C 11,2 C 76 % 1022,6 hPa 0,0 l/m 0 min 0 min 0,0 UV-I 0 W/m 0,0 km/h (0 Bft)
23.04.2013 21:18 13,4 C 11,2 C 76 % 1022,6 hPa 0,0 l/m 0 min 0 min 0,0 UV-I 0 W/m 0,0 km/h (0 Bft)
23.04.2013 21:20 13,4 C 11,2 C 77 % 1022,6 hPa 0,0 l/m 0 min 0 min 0,0 UV-I 0 W/m 0,0 km/h (0 Bft)
23.04.2013 21:22 13,4 C 11,2 C 77 % 1022,7 hPa 0,0 l/m 0 min 0 min 0,0 UV-I 0 W/m 0,0 km/h (0 Bft)
23.04.2013 21:24 13,4 C 10,7 C 77 % 1022,7 hPa 0,0 l/m 0 min 0 min 0,0 UV-I 0 W/m 0,0 km/h (0 Bft)
23.04.2013 21:26 13,3 C 10,7 C 77 % 1022,7 hPa 0,0 l/m 0 min 0 min 0,0 UV-I 0 W/m 0,0 km/h (0 Bft)
23.04.2013 21:28 13,3 C 10,7 C 77 % 1022,8 hPa 0,0 l/m 0 min 0 min 0,0 UV-I 0 W/m 0,0 km/h (0 Bft)
23.04.2013 21:30 13,3 C 10,7 C 77 % 1022,7 hPa 0,0 l/m 0 min 0 min 0,0 UV-I 0 W/m 0,0 km/h (0 Bft)
23.04.2013 21:32 13,3 C 10,7 C 77 % 1022,8 hPa 0,0 l/m 0 min 0 min 0,0 UV-I 0 W/m 0,0 km/h (0 Bft)
23.04.2013 21:34 13,3 C 10,7 C 77 % 1022,8 hPa 0,0 l/m 0 min 0 min 0,0 UV-I 0 W/m 0,0 km/h (0 Bft)
23.04.2013 21:36 13,2 C 10,7 C 78 % 1022,8 hPa 0,0 l/m 0 min 0 min 0,0 UV-I 0 W/m 0,0 km/h (0 Bft)
23.04.2013 21:38 13,2 C 10,7 C 78 % 1022,8 hPa 0,0 l/m 0 min 0 min 0,0 UV-I 0 W/m 0,0 km/h (0 Bft)
23.04.2013 21:40 13,2 C 10,1 C 78 % 1022,8 hPa 0,0 l/m 0 min 0 min 0,0 UV-I 0 W/m 0,0 km/h (0 Bft)
23.04.2013 21:42 13,2 C 10,1 C 78 % 1022,9 hPa 0,0 l/m 0 min 0 min 0,0 UV-I 0 W/m 0,0 km/h (0 Bft)
23.04.2013 21:44 13,2 C 10,1 C 78 % 1022,9 hPa 0,0 l/m 0 min 0 min 0,0 UV-I 0 W/m 0,0 km/h (0 Bft)
23.04.2013 21:46 13,1 C 10,1 C 78 % 1023,0 hPa 0,0 l/m 0 min 0 min 0,0 UV-I 0 W/m 0,0 km/h (0 Bft)
23.04.2013 21:48 13,1 C 9,6 C 78 % 1022,9 hPa 0,0 l/m 0 min 0 min 0,0 UV-I 0 W/m 0,0 km/h (0 Bft)
23.04.2013 21:50 13,1 C 9,6 C 78 % 1022,9 hPa 0,0 l/m 0 min 0 min 0,0 UV-I 0 W/m 0,0 km/h (0 Bft)
23.04.2013 21:52 13,0 C 9,6 C 78 % 1022,9 hPa 0,0 l/m 0 min 0 min 0,0 UV-I 0 W/m 0,0 km/h (0 Bft)
23.04.2013 21:54 13,0 C 9,6 C 78 % 1022,9 hPa 0,0 l/m 0 min 0 min 0,0 UV-I 0 W/m 0,0 km/h (0 Bft)
23.04.2013 21:56 12,9 C 9,6 C 78 % 1022,9 hPa 0,0 l/m 0 min 0 min 0,0 UV-I 0 W/m 0,0 km/h (0 Bft)
23.04.2013 21:58 12,9 C 9,0 C 78 % 1022,9 hPa 0,0 l/m 0 min 0 min 0,0 UV-I 0 W/m 0,0 km/h (0 Bft)
23.04.2013 22:00 12,8 C 9,0 C 79 % 1023,0 hPa 0,0 l/m 0 min 0 min 0,0 UV-I 0 W/m 0,0 km/h (0 Bft)
23.04.2013 22:02 12,8 C 9,0 C 79 % 1023,1 hPa 0,0 l/m 0 min 0 min 0,0 UV-I 0 W/m 0,0 km/h (0 Bft)
23.04.2013 22:04 12,8 C 9,0 C 79 % 1023,0 hPa 0,0 l/m 0 min 0 min 0,0 UV-I 0 W/m 0,0 km/h (0 Bft)
23.04.2013 22:06 12,7 C 9,0 C 79 % 1023,0 hPa 0,0 l/m 0 min 0 min 0,0 UV-I 0 W/m 0,0 km/h (0 Bft)
23.04.2013 22:08 12,7 C 9,0 C 79 % 1022,9 hPa 0,0 l/m 0 min 0 min 0,0 UV-I 0 W/m 0,0 km/h (0 Bft)
23.04.2013 22:10 12,6 C 9,0 C 79 % 1023,0 hPa 0,0 l/m 0 min 0 min 0,0 UV-I 0 W/m 0,0 km/h (0 Bft)
23.04.2013 22:12 12,6 C 9,0 C 80 % 1023,1 hPa 0,0 l/m 0 min 0 min 0,0 UV-I 0 W/m 0,0 km/h (0 Bft)
23.04.2013 22:14 12,5 C 9,0 C 80 % 1023,1 hPa 0,0 l/m 0 min 0 min 0,0 UV-I 0 W/m 0,0 km/h (0 Bft)
23.04.2013 22:16 12,4 C 9,0 C 80 % 1023,1 hPa 0,0 l/m 0 min 0 min 0,0 UV-I 0 W/m 0,0 km/h (0 Bft)
23.04.2013 22:18 12,4 C 9,0 C 80 % 1023,2 hPa 0,0 l/m 0 min 0 min 0,0 UV-I 0 W/m 0,0 km/h (0 Bft)
23.04.2013 22:20 12,3 C 9,0 C 80 % 1023,2 hPa 0,0 l/m 0 min 0 min 0,0 UV-I 0 W/m 0,0 km/h (0 Bft)
23.04.2013 22:22 12,3 C 9,0 C 81 % 1023,1 hPa 0,0 l/m 0 min 0 min 0,0 UV-I 0 W/m 0,0 km/h (0 Bft)
23.04.2013 22:24 12,3 C 9,0 C 81 % 1023,2 hPa 0,0 l/m 0 min 0 min 0,0 UV-I 0 W/m 0,0 km/h (0 Bft)
23.04.2013 22:26 12,2 C 9,0 C 81 % 1023,2 hPa 0,0 l/m 0 min 0 min 0,0 UV-I 0 W/m 0,0 km/h (0 Bft)
23.04.2013 22:28 12,2 C 9,0 C 81 % 1023,3 hPa 0,0 l/m 0 min 0 min 0,0 UV-I 0 W/m 0,0 km/h (0 Bft)
23.04.2013 22:30 12,1 C 9,0 C 81 % 1023,3 hPa 0,0 l/m 0 min 0 min 0,0 UV-I 0 W/m 0,0 km/h (0 Bft)
23.04.2013 22:32 12,1 C 9,0 C 81 % 1023,2 hPa 0,0 l/m 0 min 0 min 0,0 UV-I 0 W/m 0,0 km/h (0 Bft)
23.04.2013 22:34 12,0 C 8,4 C 81 % 1023,3 hPa 0,0 l/m 0 min 0 min 0,0 UV-I 0 W/m 0,0 km/h (0 Bft)
23.04.2013 22:36 11,9 C 8,4 C 81 % 1023,3 hPa 0,0 l/m 0 min 0 min 0,0 UV-I 0 W/m 0,0 km/h (0 Bft)
23.04.2013 22:38 11,9 C 8,4 C 81 % 1023,3 hPa 0,0 l/m 0 min 0 min 0,0 UV-I 0 W/m 0,0 km/h (0 Bft)
23.04.2013 22:40 11,9 C 8,4 C 81 % 1023,3 hPa 0,0 l/m 0 min 0 min 0,0 UV-I 0 W/m 0,0 km/h (0 Bft)
23.04.2013 22:42 11,8 C 8,4 C 81 % 1023,3 hPa 0,0 l/m 0 min 0 min 0,0 UV-I 0 W/m 0,0 km/h (0 Bft)
23.04.2013 22:44 11,8 C 8,4 C 81 % 1023,3 hPa 0,0 l/m 0 min 0 min 0,0 UV-I 0 W/m 0,0 km/h (0 Bft)
23.04.2013 22:46 11,7 C 8,4 C 81 % 1023,3 hPa 0,0 l/m 0 min 0 min 0,0 UV-I 0 W/m 0,0 km/h (0 Bft)
23.04.2013 22:48 11,7 C 9,0 C 82 % 1023,3 hPa 0,0 l/m 0 min 0 min 0,0 UV-I 0 W/m 0,0 km/h (0 Bft)
23.04.2013 22:50 11,6 C 9,0 C 82 % 1023,4 hPa 0,0 l/m 0 min 0 min 0,0 UV-I 0 W/m 0,0 km/h (0 Bft)
23.04.2013 22:52 11,6 C 9,0 C 82 % 1023,4 hPa 0,0 l/m 0 min 0 min 0,0 UV-I 0 W/m 0,0 km/h (0 Bft)
23.04.2013 22:54 11,6 C 9,0 C 82 % 1023,4 hPa 0,0 l/m 0 min 0 min 0,0 UV-I 0 W/m 0,0 km/h (0 Bft)
23.04.2013 22:56 11,5 C 9,0 C 82 % 1023,4 hPa 0,0 l/m 0 min 0 min 0,0 UV-I 0 W/m 0,0 km/h (0 Bft)
23.04.2013 22:58 11,4 C 9,0 C 82 % 1023,4 hPa 0,0 l/m 0 min 0 min 0,0 UV-I 0 W/m 0,0 km/h (0 Bft)
23.04.2013 23:00 11,4 C 9,0 C 83 % 1023,4 hPa 0,0 l/m 0 min 0 min 0,0 UV-I 0 W/m 0,0 km/h (0 Bft)
23.04.2013 23:02 11,4 C 9,6 C 84 % 1023,5 hPa 0,0 l/m 0 min 0 min 0,0 UV-I 0 W/m 10,3 km/h (2 Bft)
23.04.2013 23:04 11,3 C 9,6 C 84 % 1023,5 hPa 0,0 l/m 0 min 0 min 0,0 UV-I 0 W/m 2,6 km/h (1 Bft)
23.04.2013 23:06 11,3 C 9,6 C 85 % 1023,5 hPa 0,0 l/m 0 min 0 min 0,0 UV-I 0 W/m 0,0 km/h (0 Bft)
23.04.2013 23:08 11,3 C 9,6 C 85 % 1023,5 hPa 0,0 l/m 0 min 0 min 0,0 UV-I 0 W/m 0,0 km/h (0 Bft)
23.04.2013 23:10 11,2 C 9,6 C 85 % 1023,6 hPa 0,0 l/m 0 min 0 min 0,0 UV-I 0 W/m 0,0 km/h (0 Bft)
23.04.2013 23:12 11,2 C 9,6 C 85 % 1023,6 hPa 0,0 l/m 0 min 0 min 0,0 UV-I 0 W/m 0,0 km/h (0 Bft)
23.04.2013 23:14 11,2 C 9,6 C 85 % 1023,6 hPa 0,0 l/m 0 min 0 min 0,0 UV-I 0 W/m 0,0 km/h (0 Bft)
23.04.2013 23:16 11,2 C 9,6 C 85 % 1023,6 hPa 0,0 l/m 0 min 0 min 0,0 UV-I 0 W/m 0,0 km/h (0 Bft)
23.04.2013 23:18 11,2 C 9,6 C 85 % 1023,7 hPa 0,0 l/m 0 min 0 min 0,0 UV-I 0 W/m 0,0 km/h (0 Bft)
23.04.2013 23:20 11,2 C 9,6 C 85 % 1023,7 hPa 0,0 l/m 0 min 0 min 0,0 UV-I 0 W/m 0,0 km/h (0 Bft)
23.04.2013 23:22 11,2 C 9,6 C 86 % 1023,6 hPa 0,0 l/m 0 min 0 min 0,0 UV-I 0 W/m 0,0 km/h (0 Bft)
23.04.2013 23:24 11,1 C 9,0 C 86 % 1023,6 hPa 0,0 l/m 0 min 0 min 0,0 UV-I 0 W/m 0,0 km/h (0 Bft)
23.04.2013 23:26 11,1 C 9,0 C 86 % 1023,6 hPa 0,0 l/m 0 min 0 min 0,0 UV-I 0 W/m 0,0 km/h (0 Bft)
23.04.2013 23:28 11,1 C 9,0 C 86 % 1023,6 hPa 0,0 l/m 0 min 0 min 0,0 UV-I 0 W/m 0,0 km/h (0 Bft)
23.04.2013 23:30 11,1 C 9,0 C 86 % 1023,6 hPa 0,0 l/m 0 min 0 min 0,0 UV-I 0 W/m 0,0 km/h (0 Bft)
23.04.2013 23:32 11,1 C 9,0 C 86 % 1023,6 hPa 0,0 l/m 0 min 0 min 0,0 UV-I 0 W/m 0,0 km/h (0 Bft)
23.04.2013 23:34 11,1 C 8,4 C 86 % 1023,6 hPa 0,0 l/m 0 min 0 min 0,0 UV-I 0 W/m 0,0 km/h (0 Bft)
23.04.2013 23:36 11,1 C 8,4 C 86 % 1023,6 hPa 0,0 l/m 0 min 0 min 0,0 UV-I 0 W/m 0,0 km/h (0 Bft)
23.04.2013 23:38 11,1 C 8,4 C 86 % 1023,6 hPa 0,0 l/m 0 min 0 min 0,0 UV-I 0 W/m 0,0 km/h (0 Bft)
23.04.2013 23:40 11,0 C 8,4 C 86 % 1023,7 hPa 0,0 l/m 0 min 0 min 0,0 UV-I 0 W/m 0,0 km/h (0 Bft)
23.04.2013 23:42 11,0 C 8,4 C 85 % 1023,7 hPa 0,0 l/m 0 min 0 min 0,0 UV-I 0 W/m 0,0 km/h (0 Bft)
23.04.2013 23:44 10,9 C 8,4 C 85 % 1023,7 hPa 0,0 l/m 0 min 0 min 0,0 UV-I 0 W/m 0,0 km/h (0 Bft)
23.04.2013 23:46 10,9 C 8,4 C 85 % 1023,8 hPa 0,0 l/m 0 min 0 min 0,0 UV-I 0 W/m 0,0 km/h (0 Bft)
23.04.2013 23:48 10,9 C 8,4 C 85 % 1023,8 hPa 0,0 l/m 0 min 0 min 0,0 UV-I 0 W/m 0,0 km/h (0 Bft)
23.04.2013 23:50 10,9 C 7,9 C 85 % 1023,9 hPa 0,0 l/m 0 min 0 min 0,0 UV-I 0 W/m 0,0 km/h (0 Bft)
23.04.2013 23:52 10,8 C 7,9 C 85 % 1023,9 hPa 0,0 l/m 0 min 0 min 0,0 UV-I 0 W/m 0,0 km/h (0 Bft)
23.04.2013 23:54 10,8 C 7,9 C 85 % 1023,8 hPa 0,0 l/m 0 min 0 min 0,0 UV-I 0 W/m 0,0 km/h (0 Bft)
23.04.2013 23:56 10,8 C 7,9 C 85 % 1023,8 hPa 0,0 l/m 0 min 0 min 0,0 UV-I 0 W/m 0,0 km/h (0 Bft)
23.04.2013 23:58 10,8 C 7,9 C 85 % 1023,9 hPa 0,0 l/m 0 min 0 min 0,0 UV-I 0 W/m 0,0 km/h (0 Bft)
_ Min-Zeit 04:28 00:00 00:00 02:42 - - - - - 00:00
Minimum _ 9,8 C 7,9 C 64 % 1016,8 hPa - - - - - 0,0 km/h (0 Bft)
_ Max-Zeit 17:30 17:22 10:08 23:50 00:00 12:22 00:00 12:22 17:20 11:38
Maximum _ 16,2 C 16,2 C 89 % 1023,9 hPa 0,0 l/m 2 min 0 min 2,9 UV-I 592 W/m 28,3 km/h
W (4 Bft)
Durchschnitt _ 12,1 C 11,1 C 77 % 1019,7 hPa #0,0 l/m #44 min. #0 min. 1,3 UV-I 139 W/m 7,0 km/h (2 Bft)
© 2013 W. Hausmann